Observation data for Abernathy on 01/13/2021      Previous  Date  Next       Current Mesonet Observations  Soil Data  Daily Summary Page  Observations in Plain Language
KARS 130600Z 24005KT M02/M04 A3018 RMK A01 T10231038  RH  089%=      5-min Rain = 0
KARS 130601Z 24006KT M02/M04 A3018 RMK A01 T10231038  RH  089%=      5-min Rain = 0
KARS 130602Z 24005KT M02/M04 A3017 RMK A01 T10231038  RH  089%=      5-min Rain = 0
KARS 130603Z 24006KT M02/M04 A3017 RMK A01 T10231038  RH  089%=      5-min Rain = 0
KARS 130604Z 24007KT M02/M04 A3017 RMK A01 T10231038  RH  089%=      5-min Rain = 0
KARS 130605Z 24006KT M02/M04 A3017 RMK A01 T10221038  RH  089%=      5-min Rain = 0
KARS 130606Z 25006KT M02/M04 A3017 RMK A01 T10221038  RH  089%=      5-min Rain = 0
KARS 130607Z 24007KT M02/M04 A3017 RMK A01 T10221038  RH  089%=      5-min Rain = 0
KARS 130608Z 24006KT M02/M04 A3017 RMK A01 T10221039  RH  089%=      5-min Rain = 0
KARS 130609Z 24007KT M02/M04 A3017 RMK A01 T10221038  RH  089%=      5-min Rain = 0
KARS 130610Z 24007KT M02/M04 A3017 RMK A01 T10221038  RH  089%=      5-min Rain = 0
KARS 130611Z 24007KT M02/M04 A3017 RMK A01 T10221038  RH  089%=      5-min Rain = 0
KARS 130612Z 24007KT M02/M04 A3017 RMK A01 T10221038  RH  088%=      5-min Rain = 0
KARS 130613Z 25007KT M02/M04 A3017 RMK A01 T10221038  RH  088%=      5-min Rain = 0
KARS 130614Z 25007KT M02/M04 A3017 RMK A01 T10221038  RH  088%=      5-min Rain = 0
KARS 130615Z 25006KT M02/M04 A3017 RMK A01 T10221038  RH  088%=      5-min Rain = 0
KARS 130616Z 25007KT M02/M04 A3017 RMK A01 T10221039  RH  088%=      5-min Rain = 0
KARS 130617Z 25007KT M02/M04 A3018 RMK A01 T10221038  RH  088%=      5-min Rain = 0
KARS 130618Z 25007KT M02/M04 A3018 RMK A01 T10221038  RH  089%=      5-min Rain = 0
KARS 130619Z 25007KT M02/M04 A3018 RMK A01 T10221039  RH  088%=      5-min Rain = 0
KARS 130620Z 25007KT M02/M04 A3018 RMK A01 T10221039  RH  088%=      5-min Rain = 0
KARS 130621Z 25007KT M02/M04 A3018 RMK A01 T10231039  RH  088%=      5-min Rain = 0
KARS 130622Z 25007KT M02/M04 A3018 RMK A01 T10231039  RH  089%=      5-min Rain = 0
KARS 130623Z 25007KT M02/M04 A3018 RMK A01 T10231040  RH  089%=      5-min Rain = 0
KARS 130624Z 25007KT M02/M04 A3018 RMK A01 T10241040  RH  089%=      5-min Rain = 0
KARS 130625Z 25007KT M02/M04 A3017 RMK A01 T10241040  RH  089%=      5-min Rain = 0
KARS 130626Z 25007KT M02/M04 A3017 RMK A01 T10241040  RH  089%=      5-min Rain = 0
KARS 130627Z 25007KT M02/M04 A3017 RMK A01 T10241040  RH  089%=      5-min Rain = 0
KARS 130628Z 26007KT M03/M04 A3017 RMK A01 T10251041  RH  089%=      5-min Rain = 0
KARS 130629Z 26008KT M03/M04 A3017 RMK A01 T10251041  RH  089%=      5-min Rain = 0
KARS 130630Z 26007KT M03/M04 A3017 RMK A01 T10251041  RH  089%=      5-min Rain = 0
KARS 130631Z 26007KT M03/M04 A3017 RMK A01 T10251041  RH  088%=      5-min Rain = 0
KARS 130632Z 26007KT M03/M04 A3017 RMK A01 T10251042  RH  088%=      5-min Rain = 0
KARS 130633Z 26007KT M03/M04 A3017 RMK A01 T10251042  RH  088%=      5-min Rain = 0
KARS 130634Z 26007KT M03/M04 A3017 RMK A01 T10261042  RH  089%=      5-min Rain = 0
KARS 130635Z 26007KT M03/M04 A3017 RMK A01 T10261042  RH  089%=      5-min Rain = 0
KARS 130636Z 26007KT M03/M04 A3017 RMK A01 T10261042  RH  089%=      5-min Rain = 0
KARS 130637Z 26007KT M03/M04 A3017 RMK A01 T10261043  RH  089%=      5-min Rain = 0
KARS 130638Z 26007KT M03/M04 A3017 RMK A01 T10261042  RH  089%=      5-min Rain = 0
KARS 130639Z 26007KT M03/M04 A3017 RMK A01 T10261042  RH  089%=      5-min Rain = 0
KARS 130640Z 26007KT M03/M04 A3017 RMK A01 T10261042  RH  089%=      5-min Rain = 0
KARS 130641Z 26007KT M03/M04 A3017 RMK A01 T10261042  RH  089%=      5-min Rain = 0
KARS 130642Z 27007KT M03/M04 A3017 RMK A01 T10261042  RH  089%=      5-min Rain = 0
KARS 130643Z 27007KT M03/M04 A3017 RMK A01 T10261042  RH  089%=      5-min Rain = 0
KARS 130644Z 27006KT M03/M04 A3017 RMK A01 T10261042  RH  088%=      5-min Rain = 0
KARS 130645Z 27006KT M03/M04 A3017 RMK A01 T10261042  RH  088%=      5-min Rain = 0
KARS 130646Z 27006KT M03/M04 A3017 RMK A01 T10261042  RH  088%=      5-min Rain = 0
KARS 130647Z 27006KT M03/M04 A3017 RMK A01 T10271043  RH  088%=      5-min Rain = 0
KARS 130648Z 27006KT M03/M04 A3017 RMK A01 T10271044  RH  088%=      5-min Rain = 0
KARS 130649Z 27006KT M03/M04 A3017 RMK A01 T10281044  RH  089%=      5-min Rain = 0
KARS 130650Z 27005KT M03/M04 A3017 RMK A01 T10281044  RH  089%=      5-min Rain = 0
KARS 130651Z 27005KT M03/M04 A3017 RMK A01 T10281044  RH  089%=      5-min Rain = 0
KARS 130652Z 27005KT M03/M04 A3017 RMK A01 T10281044  RH  089%=      5-min Rain = 0
KARS 130653Z 27006KT M03/M04 A3017 RMK A01 T10281044  RH  089%=      5-min Rain = 0
KARS 130654Z 27006KT M03/M04 A3017 RMK A01 T10281044  RH  088%=      5-min Rain = 0
KARS 130655Z 27006KT M03/M05 A3017 RMK A01 T10281045  RH  088%=      5-min Rain = 0
KARS 130656Z 27006KT M03/M05 A3017 RMK A01 T10281045  RH  088%=      5-min Rain = 0
KARS 130657Z 27006KT M03/M04 A3017 RMK A01 T10271044  RH  088%=      5-min Rain = 0
KARS 130658Z 27006KT M03/M04 A3017 RMK A01 T10271044  RH  088%=      5-min Rain = 0
KARS 130659Z 27006KT M03/M05 A3017 RMK A01 T10271045  RH  088%=      5-min Rain = 0
KARS 130700Z 27006KT M03/M05 A3017 RMK A01 T10271045  RH  088%=      5-min Rain = 0
KARS 130701Z 27007KT M03/M04 A3017 RMK A01 T10271044  RH  088%=      5-min Rain = 0
KARS 130702Z 27007KT M03/M04 A3017 RMK A01 T10261044  RH  088%=      5-min Rain = 0
KARS 130703Z 26007KT M03/M04 A3017 RMK A01 T10251043  RH  087%=      5-min Rain = 0
KARS 130704Z 26007KT M03/M04 A3017 RMK A01 T10251042  RH  088%=      5-min Rain = 0
KARS 130705Z 26007KT M02/M04 A3017 RMK A01 T10231041  RH  088%=      5-min Rain = 0
KARS 130706Z 26008KT M02/M04 A3017 RMK A01 T10221040  RH  087%=      5-min Rain = 0
KARS 130707Z 26008KT M02/M04 A3017 RMK A01 T10211040  RH  087%=      5-min Rain = 0
KARS 130708Z 27008KT M02/M04 A3017 RMK A01 T10201040  RH  086%=      5-min Rain = 0
KARS 130709Z 26009KT M02/M04 A3017 RMK A01 T10201040  RH  086%=      5-min Rain = 0
KARS 130710Z 26008KT M02/M04 A3017 RMK A01 T10201040  RH  086%=      5-min Rain = 0
KARS 130711Z 26009KT M02/M04 A3017 RMK A01 T10191040  RH  086%=      5-min Rain = 0
KARS 130712Z 26008KT M02/M04 A3017 RMK A01 T10191040  RH  086%=      5-min Rain = 0
KARS 130713Z 26009KT M02/M04 A3017 RMK A01 T10191040  RH  086%=      5-min Rain = 0
KARS 130714Z 26008KT M02/M04 A3017 RMK A01 T10191040  RH  085%=      5-min Rain = 0
KARS 130715Z 26008KT M02/M04 A3017 RMK A01 T10191040  RH  085%=      5-min Rain = 0
KARS 130716Z 26008KT M02/M04 A3016 RMK A01 T10191040  RH  085%=      5-min Rain = 0
KARS 130717Z 26008KT M02/M04 A3016 RMK A01 T10181040  RH  085%=      5-min Rain = 0
KARS 130718Z 26008KT M02/M04 A3016 RMK A01 T10181040  RH  085%=      5-min Rain = 0
KARS 130719Z 26008KT M02/M04 A3016 RMK A01 T10181040  RH  085%=      5-min Rain = 0
KARS 130720Z 27008KT M02/M04 A3017 RMK A01 T10181040  RH  085%=      5-min Rain = 0
KARS 130721Z 27008KT M02/M04 A3017 RMK A01 T10181040  RH  085%=      5-min Rain = 0
KARS 130722Z 27008KT M02/M04 A3017 RMK A01 T10181040  RH  085%=      5-min Rain = 0
KARS 130723Z 27008KT M02/M04 A3017 RMK A01 T10181040  RH  085%=      5-min Rain = 0
KARS 130724Z 27008KT M02/M04 A3017 RMK A01 T10181040  RH  085%=      5-min Rain = 0
KARS 130725Z 27008KT M02/M04 A3017 RMK A01 T10181040  RH  085%=      5-min Rain = 0
KARS 130726Z 27008KT M02/M04 A3017 RMK A01 T10181040  RH  085%=      5-min Rain = 0
KARS 130727Z 27008KT M02/M04 A3017 RMK A01 T10181040  RH  085%=      5-min Rain = 0
KARS 130728Z 27007KT M02/M04 A3017 RMK A01 T10181040  RH  085%=      5-min Rain = 0
KARS 130729Z 27007KT M02/M04 A3017 RMK A01 T10181040  RH  085%=      5-min Rain = 0
KARS 130730Z 27007KT M02/M04 A3017 RMK A01 T10181041  RH  085%=      5-min Rain = 0
KARS 130731Z 27007KT M02/M04 A3017 RMK A01 T10181041  RH  085%=      5-min Rain = 0
KARS 130732Z 27007KT M02/M04 A3017 RMK A01 T10191041  RH  085%=      5-min Rain = 0
KARS 130733Z 27006KT M02/M04 A3017 RMK A01 T10191041  RH  085%=      5-min Rain = 0
KARS 130734Z 27006KT M02/M04 A3017 RMK A01 T10201042  RH  085%=      5-min Rain = 0
KARS 130735Z 27005KT M02/M04 A3017 RMK A01 T10201043  RH  085%=      5-min Rain = 0
KARS 130736Z 27006KT M02/M04 A3017 RMK A01 T10211044  RH  085%=      5-min Rain = 0
KARS 130737Z 27006KT M02/M04 A3017 RMK A01 T10221044  RH  085%=      5-min Rain = 0
KARS 130738Z 27007KT M02/M04 A3017 RMK A01 T10221043  RH  085%=      5-min Rain = 0
KARS 130739Z 27007KT M02/M04 A3017 RMK A01 T10221043  RH  085%=      5-min Rain = 0
KARS 130740Z 27008KT M02/M04 A3017 RMK A01 T10211042  RH  086%=      5-min Rain = 0
KARS 130741Z 27008KT M02/M04 A3017 RMK A01 T10211041  RH  086%=      5-min Rain = 0
KARS 130742Z 27009KT M02/M04 A3017 RMK A01 T10201041  RH  086%=      5-min Rain = 0
KARS 130743Z 27009KT M02/M04 A3017 RMK A01 T10191041  RH  085%=      5-min Rain = 0
KARS 130744Z 27008KT M02/M04 A3017 RMK A01 T10191041  RH  085%=      5-min Rain = 0
KARS 130745Z 27009KT M02/M04 A3017 RMK A01 T10181040  RH  085%=      5-min Rain = 0
KARS 130746Z 26009KT M02/M04 A3017 RMK A01 T10171040  RH  084%=      5-min Rain = 0
KARS 130747Z 26008KT M02/M04 A3017 RMK A01 T10161040  RH  084%=      5-min Rain = 0
KARS 130748Z 26009KT M02/M04 A3017 RMK A01 T10161039  RH  084%=      5-min Rain = 0
KARS 130749Z 26009KT M02/M04 A3017 RMK A01 T10151039  RH  084%=      5-min Rain = 0
KARS 130750Z 26009KT M02/M04 A3017 RMK A01 T10151039  RH  084%=      5-min Rain = 0
KARS 130751Z 26010KT M02/M04 A3017 RMK A01 T10151039  RH  084%=      5-min Rain = 0
KARS 130752Z 26009KT M02/M04 A3017 RMK A01 T10151039  RH  084%=      5-min Rain = 0
KARS 130753Z 26009KT M02/M04 A3017 RMK A01 T10151039  RH  084%=      5-min Rain = 0
KARS 130754Z 26008KT M02/M04 A3017 RMK A01 T10151039  RH  084%=      5-min Rain = 0
KARS 130755Z 26007KT M02/M04 A3017 RMK A01 T10151039  RH  084%=      5-min Rain = 0
KARS 130756Z 26007KT M02/M04 A3017 RMK A01 T10161040  RH  084%=      5-min Rain = 0
KARS 130757Z 26007KT M02/M04 A3017 RMK A01 T10171040  RH  084%=      5-min Rain = 0
KARS 130758Z 26008KT M02/M04 A3017 RMK A01 T10171041  RH  084%=      5-min Rain = 0
KARS 130759Z 26008KT M02/M04 A3017 RMK A01 T10181041  RH  084%=      5-min Rain = 0
KARS 130800Z 26008KT M02/M04 A3017 RMK A01 T10191042  RH  085%=      5-min Rain = 0
KARS 130801Z 26008KT M02/M04 A3017 RMK A01 T10201042  RH  085%=      5-min Rain = 0
KARS 130802Z 26008KT M02/M04 A3017 RMK A01 T10201042  RH  085%=      5-min Rain = 0
KARS 130803Z 26008KT M02/M04 A3016 RMK A01 T10201042  RH  085%=      5-min Rain = 0
KARS 130804Z 26009KT M02/M04 A3016 RMK A01 T10201042  RH  085%=      5-min Rain = 0
KARS 130805Z 26008KT M02/M04 A3016 RMK A01 T10201042  RH  085%=      5-min Rain = 0
KARS 130806Z 26009KT M02/M04 A3016 RMK A01 T10201042  RH  085%=      5-min Rain = 0
KARS 130807Z 26009KT M02/M04 A3016 RMK A01 T10201042  RH  085%=      5-min Rain = 0
KARS 130808Z 26009KT M02/M04 A3016 RMK A01 T10191042  RH  084%=      5-min Rain = 0
KARS 130809Z 26009KT M02/M04 A3016 RMK A01 T10191042  RH  084%=      5-min Rain = 0
KARS 130810Z 26009KT M02/M04 A3016 RMK A01 T10191042  RH  084%=      5-min Rain = 0
KARS 130811Z 26009KT M02/M04 A3016 RMK A01 T10191042  RH  084%=      5-min Rain = 0
KARS 130812Z 26009KT M02/M04 A3016 RMK A01 T10191042  RH  084%=      5-min Rain = 0
KARS 130813Z 26009KT M02/M04 A3016 RMK A01 T10181042  RH  084%=      5-min Rain = 0
KARS 130814Z 26009KT M02/M04 A3016 RMK A01 T10181041  RH  084%=      5-min Rain = 0
KARS 130815Z 26009KT M02/M04 A3016 RMK A01 T10171041  RH  084%=      5-min Rain = 0
KARS 130816Z 26009KT M02/M04 A3016 RMK A01 T10171041  RH  084%=      5-min Rain = 0
KARS 130817Z 26008KT M02/M04 A3016 RMK A01 T10161041  RH  083%=      5-min Rain = 0
KARS 130818Z 26008KT M02/M04 A3016 RMK A01 T10151041  RH  083%=      5-min Rain = 0
KARS 130819Z 26008KT M02/M04 A3016 RMK A01 T10151041  RH  083%=      5-min Rain = 0
KARS 130820Z 26008KT M02/M04 A3016 RMK A01 T10161042  RH  083%=      5-min Rain = 0
KARS 130821Z 26008KT M02/M04 A3016 RMK A01 T10161042  RH  083%=      5-min Rain = 0
KARS 130822Z 26008KT M02/M04 A3016 RMK A01 T10171042  RH  082%=      5-min Rain = 0
KARS 130823Z 26008KT M02/M04 A3016 RMK A01 T10171043  RH  083%=      5-min Rain = 0
KARS 130824Z 26007KT M02/M04 A3016 RMK A01 T10181043  RH  083%=      5-min Rain = 0
KARS 130825Z 26008KT M02/M04 A3016 RMK A01 T10181044  RH  083%=      5-min Rain = 0
KARS 130826Z 26007KT M02/M04 A3016 RMK A01 T10181044  RH  082%=      5-min Rain = 0
KARS 130827Z 26007KT M02/M05 A3016 RMK A01 T10181045  RH  082%=      5-min Rain = 0
KARS 130828Z 26007KT M02/M05 A3016 RMK A01 T10191045  RH  083%=      5-min Rain = 0
KARS 130829Z 26007KT M02/M05 A3016 RMK A01 T10201045  RH  083%=      5-min Rain = 0
KARS 130830Z 26008KT M02/M05 A3016 RMK A01 T10201045  RH  083%=      5-min Rain = 0
KARS 130831Z 26008KT M02/M05 A3016 RMK A01 T10201045  RH  083%=      5-min Rain = 0
KARS 130832Z 26008KT M02/M05 A3016 RMK A01 T10201045  RH  083%=      5-min Rain = 0
KARS 130833Z 26008KT M02/M05 A3016 RMK A01 T10201045  RH  083%=      5-min Rain = 0
KARS 130834Z 26008KT M02/M05 A3016 RMK A01 T10201045  RH  083%=      5-min Rain = 0
KARS 130835Z 26008KT M02/M05 A3016 RMK A01 T10201045  RH  083%=      5-min Rain = 0
KARS 130836Z 26008KT M02/M04 A3016 RMK A01 T10201044  RH  083%=      5-min Rain = 0
KARS 130837Z 25008KT M02/M04 A3016 RMK A01 T10201044  RH  083%=      5-min Rain = 0
KARS 130838Z 26008KT M02/M04 A3016 RMK A01 T10201044  RH  083%=      5-min Rain = 0
KARS 130839Z 26008KT M02/M04 A3015 RMK A01 T10201044  RH  083%=      5-min Rain = 0
KARS 130840Z 26008KT M02/M04 A3015 RMK A01 T10201044  RH  083%=      5-min Rain = 0
KARS 130841Z 26008KT M02/M05 A3015 RMK A01 T10201045  RH  083%=      5-min Rain = 0
KARS 130842Z 26008KT M02/M05 A3015 RMK A01 T10201045  RH  083%=      5-min Rain = 0
KARS 130843Z 26008KT M02/M05 A3015 RMK A01 T10201045  RH  083%=      5-min Rain = 0
KARS 130844Z 26008KT M02/M05 A3015 RMK A01 T10201045  RH  083%=      5-min Rain = 0
KARS 130845Z 26008KT M02/M05 A3015 RMK A01 T10201045  RH  083%=      5-min Rain = 0
KARS 130846Z 26009KT M02/M05 A3015 RMK A01 T10211045  RH  083%=      5-min Rain = 0
KARS 130847Z 26008KT M02/M05 A3015 RMK A01 T10201045  RH  083%=      5-min Rain = 0
KARS 130848Z 26008KT M02/M05 A3015 RMK A01 T10211045  RH  083%=      5-min Rain = 0
KARS 130849Z 26008KT M02/M05 A3015 RMK A01 T10201045  RH  084%=      5-min Rain = 0
KARS 130850Z 25009KT M02/M05 A3015 RMK A01 T10211045  RH  084%=      5-min Rain = 0
KARS 130851Z 25008KT M02/M05 A3015 RMK A01 T10211045  RH  084%=      5-min Rain = 0
KARS 130852Z 25008KT M02/M05 A3015 RMK A01 T10221045  RH  084%=      5-min Rain = 0
KARS 130853Z 25009KT M02/M05 A3015 RMK A01 T10221045  RH  084%=      5-min Rain = 0
KARS 130854Z 25009KT M02/M05 A3015 RMK A01 T10221045  RH  084%=      5-min Rain = 0
KARS 130855Z 25008KT M02/M05 A3015 RMK A01 T10231046  RH  084%=      5-min Rain = 0
KARS 130856Z 25009KT M02/M05 A3015 RMK A01 T10231046  RH  084%=      5-min Rain = 0
KARS 130857Z 25009KT M02/M05 A3015 RMK A01 T10241046  RH  085%=      5-min Rain = 0
KARS 130858Z 25009KT M02/M05 A3015 RMK A01 T10241047  RH  085%=      5-min Rain = 0
KARS 130859Z 26009KT M02/M05 A3015 RMK A01 T10241047  RH  085%=      5-min Rain = 0
KARS 130900Z 25009KT M03/M05 A3015 RMK A01 T10251047  RH  085%=      5-min Rain = 0
KARS 130901Z 25009KT M03/M05 A3015 RMK A01 T10251047  RH  085%=      5-min Rain = 0
KARS 130902Z 25009KT M03/M05 A3015 RMK A01 T10251047  RH  085%=      5-min Rain = 0
KARS 130903Z 25009KT M03/M05 A3015 RMK A01 T10261047  RH  085%=      5-min Rain = 0
KARS 130904Z 25009KT M03/M05 A3015 RMK A01 T10261047  RH  085%=      5-min Rain = 0
KARS 130905Z 25009KT M03/M05 A3015 RMK A01 T10261048  RH  085%=      5-min Rain = 0
KARS 130906Z 25009KT M03/M05 A3015 RMK A01 T10261047  RH  086%=      5-min Rain = 0
KARS 130907Z 25009KT M03/M05 A3015 RMK A01 T10261047  RH  085%=      5-min Rain = 0
KARS 130908Z 25008KT M03/M05 A3015 RMK A01 T10261048  RH  085%=      5-min Rain = 0
KARS 130909Z 25008KT M03/M05 A3015 RMK A01 T10261048  RH  085%=      5-min Rain = 0
KARS 130910Z 25008KT M03/M05 A3015 RMK A01 T10261048  RH  085%=      5-min Rain = 0
KARS 130911Z 26008KT M03/M05 A3015 RMK A01 T10261048  RH  085%=      5-min Rain = 0
KARS 130912Z 26008KT M03/M05 A3015 RMK A01 T10261048  RH  085%=      5-min Rain = 0
KARS 130913Z 26008KT M03/M05 A3015 RMK A01 T10271048  RH  085%=      5-min Rain = 0
KARS 130914Z 26009KT M03/M05 A3015 RMK A01 T10271049  RH  085%=      5-min Rain = 0
KARS 130915Z 26008KT M03/M05 A3015 RMK A01 T10271049  RH  085%=      5-min Rain = 0
KARS 130916Z 26008KT M03/M05 A3015 RMK A01 T10271049  RH  085%=      5-min Rain = 0
KARS 130917Z 26008KT M03/M05 A3015 RMK A01 T10271049  RH  085%=      5-min Rain = 0
KARS 130918Z 26008KT M03/M05 A3015 RMK A01 T10271048  RH  085%=      5-min Rain = 0
KARS 130919Z 26008KT M03/M05 A3015 RMK A01 T10271049  RH  085%=      5-min Rain = 0
KARS 130920Z 26009KT M03/M05 A3015 RMK A01 T10271048  RH  085%=      5-min Rain = 0
KARS 130921Z 26008KT M03/M05 A3015 RMK A01 T10261048  RH  085%=      5-min Rain = 0
KARS 130922Z 26008KT M03/M05 A3015 RMK A01 T10261048  RH  085%=      5-min Rain = 0
KARS 130923Z 26009KT M03/M05 A3015 RMK A01 T10261048  RH  085%=      5-min Rain = 0
KARS 130924Z 26008KT M03/M05 A3015 RMK A01 T10251048  RH  085%=      5-min Rain = 0
KARS 130925Z 25008KT M03/M05 A3015 RMK A01 T10251048  RH  084%=      5-min Rain = 0
KARS 130926Z 25008KT M03/M05 A3015 RMK A01 T10251048  RH  084%=      5-min Rain = 0
KARS 130927Z 26008KT M03/M05 A3015 RMK A01 T10251048  RH  085%=      5-min Rain = 0
KARS 130928Z 26009KT M03/M05 A3015 RMK A01 T10261048  RH  085%=      5-min Rain = 0
KARS 130929Z 26008KT M03/M05 A3015 RMK A01 T10261048  RH  085%=      5-min Rain = 0
KARS 130930Z 26008KT M03/M05 A3015 RMK A01 T10261048  RH  085%=      5-min Rain = 0
KARS 130931Z 26009KT M03/M05 A3015 RMK A01 T10261048  RH  085%=      5-min Rain = 0
KARS 130932Z 26009KT M03/M05 A3015 RMK A01 T10261048  RH  084%=      5-min Rain = 0
KARS 130933Z 26008KT M03/M05 A3015 RMK A01 T10261048  RH  084%=      5-min Rain = 0
KARS 130934Z 26008KT M03/M05 A3015 RMK A01 T10261048  RH  084%=      5-min Rain = 0
KARS 130935Z 26009KT M03/M05 A3015 RMK A01 T10261048  RH  084%=      5-min Rain = 0
KARS 130936Z 26009KT M03/M05 A3014 RMK A01 T10261048  RH  084%=      5-min Rain = 0
KARS 130937Z 26008KT M03/M05 A3014 RMK A01 T10251048  RH  084%=      5-min Rain = 0
KARS 130938Z 26009KT M03/M05 A3014 RMK A01 T10251049  RH  084%=      5-min Rain = 0
KARS 130939Z 26009KT M03/M05 A3014 RMK A01 T10261049  RH  084%=      5-min Rain = 0
KARS 130940Z 26008KT M03/M05 A3014 RMK A01 T10261049  RH  084%=      5-min Rain = 0
KARS 130941Z 26008KT M03/M05 A3014 RMK A01 T10261049  RH  084%=      5-min Rain = 0
KARS 130942Z 26008KT M03/M05 A3014 RMK A01 T10261049  RH  084%=      5-min Rain = 0
KARS 130943Z 26008KT M03/M05 A3014 RMK A01 T10261050  RH  084%=      5-min Rain = 0
KARS 130944Z 26009KT M03/M05 A3014 RMK A01 T10261050  RH  084%=      5-min Rain = 0
KARS 130945Z 26009KT M03/M05 A3014 RMK A01 T10271050  RH  084%=      5-min Rain = 0
KARS 130946Z 26008KT M03/M05 A3014 RMK A01 T10271050  RH  084%=      5-min Rain = 0
KARS 130947Z 26008KT M03/M05 A3014 RMK A01 T10271050  RH  084%=      5-min Rain = 0
KARS 130948Z 26008KT M03/M05 A3014 RMK A01 T10271050  RH  084%=      5-min Rain = 0
KARS 130949Z 26008KT M03/M05 A3014 RMK A01 T10271050  RH  084%=      5-min Rain = 0
KARS 130950Z 26008KT M03/M05 A3013 RMK A01 T10271050  RH  084%=      5-min Rain = 0
KARS 130951Z 26008KT M03/M05 A3013 RMK A01 T10271050  RH  084%=      5-min Rain = 0
KARS 130952Z 26008KT M03/M05 A3013 RMK A01 T10271050  RH  084%=      5-min Rain = 0
KARS 130953Z 26009KT M03/M05 A3013 RMK A01 T10271050  RH  084%=      5-min Rain = 0
KARS 130954Z 26008KT M03/M05 A3013 RMK A01 T10271050  RH  084%=      5-min Rain = 0
KARS 130955Z 26008KT M03/M05 A3013 RMK A01 T10271050  RH  084%=      5-min Rain = 0
KARS 130956Z 26008KT M03/M05 A3013 RMK A01 T10271051  RH  084%=      5-min Rain = 0
KARS 130957Z 26008KT M03/M05 A3013 RMK A01 T10271051  RH  084%=      5-min Rain = 0
KARS 130958Z 25008KT M03/M05 A3013 RMK A01 T10271051  RH  084%=      5-min Rain = 0
KARS 130959Z 25008KT M03/M05 A3013 RMK A01 T10271051  RH  084%=      5-min Rain = 0
KARS 131000Z 25007KT M03/M05 A3013 RMK A01 T10271051  RH  084%=      5-min Rain = 0
KARS 131001Z 25007KT M03/M05 A3013 RMK A01 T10271051  RH  083%=      5-min Rain = 0
KARS 131002Z 25007KT M03/M05 A3012 RMK A01 T10261051  RH  083%=      5-min Rain = 0
KARS 131003Z 25007KT M03/M05 A3012 RMK A01 T10261051  RH  083%=      5-min Rain = 0
KARS 131004Z 25006KT M03/M05 A3012 RMK A01 T10261051  RH  083%=      5-min Rain = 0
KARS 131005Z 25006KT M03/M05 A3012 RMK A01 T10271051  RH  083%=      5-min Rain = 0
KARS 131006Z 25006KT M03/M05 A3012 RMK A01 T10281052  RH  083%=      5-min Rain = 0
KARS 131007Z 24006KT M03/M05 A3012 RMK A01 T10281052  RH  084%=      5-min Rain = 0
KARS 131008Z 24007KT M03/M05 A3012 RMK A01 T10291052  RH  084%=      5-min Rain = 0
KARS 131009Z 24006KT M03/M05 A3012 RMK A01 T10291053  RH  084%=      5-min Rain = 0
KARS 131010Z 24006KT M03/M05 A3012 RMK A01 T10301053  RH  084%=      5-min Rain = 0
KARS 131011Z 24007KT M03/M05 A3012 RMK A01 T10301053  RH  084%=      5-min Rain = 0
KARS 131012Z 24006KT M03/M05 A3012 RMK A01 T10301053  RH  084%=      5-min Rain = 0
KARS 131013Z 24006KT M03/M05 A3012 RMK A01 T10311053  RH  084%=      5-min Rain = 0
KARS 131014Z 24006KT M03/M05 A3012 RMK A01 T10311053  RH  084%=      5-min Rain = 0
KARS 131015Z 24006KT M03/M05 A3012 RMK A01 T10311053  RH  085%=      5-min Rain = 0
KARS 131016Z 24006KT M03/M05 A3012 RMK A01 T10311054  RH  085%=      5-min Rain = 0
KARS 131017Z 24006KT M03/M05 A3012 RMK A01 T10321054  RH  085%=      5-min Rain = 0
KARS 131018Z 24006KT M03/M05 A3012 RMK A01 T10321054  RH  085%=      5-min Rain = 0
KARS 131019Z 24006KT M03/M05 A3012 RMK A01 T10321054  RH  085%=      5-min Rain = 0
KARS 131020Z 24006KT M03/M05 A3012 RMK A01 T10321054  RH  085%=      5-min Rain = 0
KARS 131021Z 25007KT M03/M05 A3012 RMK A01 T10331054  RH  085%=      5-min Rain = 0
KARS 131022Z 25007KT M03/M05 A3012 RMK A01 T10331054  RH  085%=      5-min Rain = 0
KARS 131023Z 25007KT M03/M06 A3012 RMK A01 T10331055  RH  085%=      5-min Rain = 0
KARS 131024Z 25007KT M03/M05 A3011 RMK A01 T10331054  RH  085%=      5-min Rain = 0
KARS 131025Z 25007KT M03/M05 A3011 RMK A01 T10321054  RH  085%=      5-min Rain = 0
KARS 131026Z 24007KT M03/M05 A3011 RMK A01 T10321054  RH  085%=      5-min Rain = 0
KARS 131027Z 25007KT M03/M05 A3011 RMK A01 T10321054  RH  084%=      5-min Rain = 0
KARS 131028Z 25007KT M03/M06 A3011 RMK A01 T10321055  RH  085%=      5-min Rain = 0
KARS 131029Z 24007KT M03/M06 A3011 RMK A01 T10321055  RH  085%=      5-min Rain = 0
KARS 131030Z 24007KT M03/M06 A3011 RMK A01 T10321055  RH  085%=      5-min Rain = 0
KARS 131031Z 24007KT M03/M06 A3011 RMK A01 T10331055  RH  085%=      5-min Rain = 0
KARS 131032Z 24007KT M03/M06 A3011 RMK A01 T10331055  RH  085%=      5-min Rain = 0
KARS 131033Z 24006KT M03/M06 A3011 RMK A01 T10331056  RH  085%=      5-min Rain = 0
KARS 131034Z 24006KT M03/M06 A3011 RMK A01 T10341056  RH  085%=      5-min Rain = 0
KARS 131035Z 24006KT M03/M06 A3011 RMK A01 T10341056  RH  085%=      5-min Rain = 0
KARS 131036Z 24006KT M03/M06 A3011 RMK A01 T10341056  RH  085%=      5-min Rain = 0
KARS 131037Z 24006KT M03/M06 A3011 RMK A01 T10341056  RH  085%=      5-min Rain = 0
KARS 131038Z 24006KT M03/M06 A301 RMK A01 T10341056  RH  085%=      5-min Rain = 0
KARS 131039Z 24006KT M04/M06 A301 RMK A01 T10351057  RH  085%=      5-min Rain = 0
KARS 131040Z 24007KT M04/M06 A301 RMK A01 T10351056  RH  085%=      5-min Rain = 0
KARS 131041Z 24007KT M04/M06 A301 RMK A01 T10351056  RH  085%=      5-min Rain = 0
KARS 131042Z 24007KT M04/M06 A301 RMK A01 T10351056  RH  085%=      5-min Rain = 0
KARS 131043Z 24008KT M04/M06 A301 RMK A01 T10351056  RH  085%=      5-min Rain = 0
KARS 131044Z 25007KT M04/M06 A301 RMK A01 T10351056  RH  085%=      5-min Rain = 0
KARS 131045Z 25008KT M04/M06 A301 RMK A01 T10351056  RH  085%=      5-min Rain = 0
KARS 131046Z 25008KT M03/M06 A301 RMK A01 T10341056  RH  085%=      5-min Rain = 0
KARS 131047Z 25008KT M03/M06 A301 RMK A01 T10341056  RH  085%=      5-min Rain = 0
KARS 131048Z 25008KT M03/M06 A301 RMK A01 T10331056  RH  085%=      5-min Rain = 0
KARS 131049Z 25008KT M03/M06 A301 RMK A01 T10331056  RH  084%=      5-min Rain = 0
KARS 131050Z 25009KT M03/M06 A301 RMK A01 T10331056  RH  084%=      5-min Rain = 0
KARS 131051Z 25009KT M03/M06 A301 RMK A01 T10321055  RH  084%=      5-min Rain = 0
KARS 131052Z 25009KT M03/M06 A301 RMK A01 T10321056  RH  084%=      5-min Rain = 0
KARS 131053Z 25010KT M03/M06 A301 RMK A01 T10311055  RH  084%=      5-min Rain = 0
KARS 131054Z 25010KT M03/M06 A3009 RMK A01 T10311055  RH  083%=      5-min Rain = 0
KARS 131055Z 25009KT M03/M06 A3009 RMK A01 T10301055  RH  083%=      5-min Rain = 0
KARS 131056Z 24010KT M03/M06 A3009 RMK A01 T10301055  RH  083%=      5-min Rain = 0
KARS 131057Z 24010KT M03/M06 A3009 RMK A01 T10301055  RH  083%=      5-min Rain = 0
KARS 131058Z 24010KT M03/M06 A3009 RMK A01 T10301055  RH  083%=      5-min Rain = 0
KARS 131059Z 25010KT M03/M06 A3009 RMK A01 T10301055  RH  083%=      5-min Rain = 0
KARS 131100Z 25010KT M03/M06 A3009 RMK A01 T10301055  RH  083%=      5-min Rain = 0
KARS 131101Z 25011KT M03/M05 A3009 RMK A01 T10291054  RH  083%=      5-min Rain = 0
KARS 131102Z 25010KT M03/M05 A3009 RMK A01 T10291054  RH  083%=      5-min Rain = 0
KARS 131103Z 25010KT M03/M06 A3009 RMK A01 T10291055  RH  082%=      5-min Rain = 0
KARS 131104Z 25010KT M03/M05 A3009 RMK A01 T10291054  RH  083%=      5-min Rain = 0
KARS 131105Z 25010KT M03/M05 A3009 RMK A01 T10291054  RH  083%=      5-min Rain = 0
KARS 131106Z 25010KT M03/M05 A3009 RMK A01 T10291054  RH  083%=      5-min Rain = 0
KARS 131107Z 25010KT M03/M05 A3009 RMK A01 T10291054  RH  083%=      5-min Rain = 0
KARS 131108Z 25010KT M03/M05 A3009 RMK A01 T10291054  RH  083%=      5-min Rain = 0
KARS 131109Z 25010KT M03/M05 A301 RMK A01 T10291054  RH  083%=      5-min Rain = 0
KARS 131110Z 25010KT M03/M05 A301 RMK A01 T10291054  RH  083%=      5-min Rain = 0
KARS 131111Z 25010KT M03/M05 A301 RMK A01 T10291054  RH  083%=      5-min Rain = 0
KARS 131112Z 25009KT M03/M05 A3009 RMK A01 T10291054  RH  083%=      5-min Rain = 0
KARS 131113Z 25010KT M03/M05 A3009 RMK A01 T10301054  RH  083%=      5-min Rain = 0
KARS 131114Z 25010KT M03/M05 A3009 RMK A01 T10301054  RH  083%=      5-min Rain = 0
KARS 131115Z 25010KT M03/M05 A3009 RMK A01 T10301054  RH  083%=      5-min Rain = 0
KARS 131116Z 25010KT M03/M05 A3009 RMK A01 T10291054  RH  083%=      5-min Rain = 0
KARS 131117Z 25010KT M03/M05 A3009 RMK A01 T10281054  RH  083%=      5-min Rain = 0
KARS 131118Z 25009KT M03/M05 A3009 RMK A01 T10281054  RH  082%=      5-min Rain = 0
KARS 131119Z 25010KT M03/M06 A3009 RMK A01 T10281055  RH  082%=      5-min Rain = 0
KARS 131120Z 25010KT M03/M06 A3009 RMK A01 T10281055  RH  082%=      5-min Rain = 0
KARS 131121Z 25010KT M03/M05 A3009 RMK A01 T10281054  RH  082%=      5-min Rain = 0
KARS 131122Z 26009KT M03/M06 A3009 RMK A01 T10281055  RH  082%=      5-min Rain = 0
KARS 131123Z 26009KT M03/M06 A3009 RMK A01 T10281055  RH  082%=      5-min Rain = 0
KARS 131124Z 26009KT M03/M05 A3009 RMK A01 T10281054  RH  082%=      5-min Rain = 0
KARS 131125Z 25009KT M03/M05 A3009 RMK A01 T10281054  RH  082%=      5-min Rain = 0
KARS 131126Z 25010KT M03/M05 A3009 RMK A01 T10291054  RH  083%=      5-min Rain = 0
KARS 131127Z 25009KT M03/M05 A3009 RMK A01 T10281054  RH  082%=      5-min Rain = 0
KARS 131128Z 26009KT M03/M06 A3009 RMK A01 T10281055  RH  082%=      5-min Rain = 0
KARS 131129Z 26009KT M03/M06 A3009 RMK A01 T10281055  RH  082%=      5-min Rain = 0
KARS 131130Z 26009KT M03/M06 A3009 RMK A01 T10281055  RH  082%=      5-min Rain = 0
KARS 131131Z 26009KT M03/M06 A3009 RMK A01 T10291055  RH  082%=      5-min Rain = 0
KARS 131132Z 26009KT M03/M06 A3009 RMK A01 T10291055  RH  082%=      5-min Rain = 0
KARS 131133Z 26008KT M03/M06 A3009 RMK A01 T10291056  RH  082%=      5-min Rain = 0
KARS 131134Z 26009KT M03/M06 A3009 RMK A01 T10291056  RH  082%=      5-min Rain = 0
KARS 131135Z 26009KT M03/M06 A3009 RMK A01 T10291056  RH  082%=      5-min Rain = 0
KARS 131136Z 26009KT M03/M06 A3009 RMK A01 T10291056  RH  082%=      5-min Rain = 0
KARS 131137Z 26009KT M03/M06 A3009 RMK A01 T10301056  RH  082%=      5-min Rain = 0
KARS 131138Z 26009KT M03/M06 A3009 RMK A01 T10301056  RH  082%=      5-min Rain = 0
KARS 131139Z 26009KT M03/M06 A3009 RMK A01 T10301056  RH  082%=      5-min Rain = 0
KARS 131140Z 26009KT M03/M06 A3009 RMK A01 T10301056  RH  082%=      5-min Rain = 0
KARS 131141Z 26009KT M03/M06 A3009 RMK A01 T10301056  RH  082%=      5-min Rain = 0
KARS 131142Z 26010KT M03/M06 A3009 RMK A01 T10301056  RH  082%=      5-min Rain = 0
KARS 131143Z 26010KT M03/M06 A3009 RMK A01 T10291056  RH  082%=      5-min Rain = 0
KARS 131144Z 26009KT M03/M06 A3009 RMK A01 T10291056  RH  082%=      5-min Rain = 0
KARS 131145Z 27008KT M03/M06 A3009 RMK A01 T10291056  RH  081%=      5-min Rain = 0
KARS 131146Z 27009KT M03/M06 A3009 RMK A01 T10281056  RH  081%=      5-min Rain = 0
KARS 131147Z 27009KT M03/M06 A3009 RMK A01 T10281056  RH  081%=      5-min Rain = 0
KARS 131148Z 27008KT M03/M06 A3009 RMK A01 T10281056  RH  081%=      5-min Rain = 0
KARS 131149Z 27009KT M03/M06 A3009 RMK A01 T10281056  RH  081%=      5-min Rain = 0
KARS 131150Z 27009KT M03/M06 A3009 RMK A01 T10281056  RH  081%=      5-min Rain = 0
KARS 131151Z 27009KT M03/M06 A3009 RMK A01 T10281056  RH  081%=      5-min Rain = 0
KARS 131152Z 27009KT M03/M06 A3009 RMK A01 T10281056  RH  081%=      5-min Rain = 0
KARS 131153Z 27009KT M03/M06 A3009 RMK A01 T10281056  RH  081%=      5-min Rain = 0
KARS 131154Z 26008KT M03/M06 A3009 RMK A01 T10281056  RH  081%=      5-min Rain = 0
KARS 131155Z 27008KT M03/M06 A3009 RMK A01 T10281056  RH  081%=      5-min Rain = 0
KARS 131156Z 27008KT M03/M06 A3009 RMK A01 T10271056  RH  081%=      5-min Rain = 0
KARS 131157Z 27009KT M03/M06 A3009 RMK A01 T10261056  RH  080%=      5-min Rain = 0
KARS 131158Z 27010KT M03/M06 A3009 RMK A01 T10251056  RH  080%=      5-min Rain = 0
KARS 131159Z 27010KT M02/M06 A3009 RMK A01 T10241055  RH  079%=      5-min Rain = 0
KARS 131200Z 27010KT M02/M06 A3009 RMK A01 T10231055  RH  079%=      5-min Rain = 0
KARS 131201Z 27010KT M02/M06 A3009 RMK A01 T10231055  RH  079%=      5-min Rain = 0
KARS 131202Z 27011KT M02/M06 A3009 RMK A01 T10231055  RH  079%=      5-min Rain = 0
KARS 131203Z 27010KT M02/M06 A3009 RMK A01 T10231056  RH  078%=      5-min Rain = 0
KARS 131204Z 27010KT M02/M06 A3009 RMK A01 T10231056  RH  078%=      5-min Rain = 0
KARS 131205Z 27010KT M02/M06 A3009 RMK A01 T10241056  RH  079%=      5-min Rain = 0
KARS 131206Z 27010KT M02/M06 A3009 RMK A01 T10241056  RH  079%=      5-min Rain = 0
KARS 131207Z 27010KT M03/M06 A3009 RMK A01 T10251056  RH  079%=      5-min Rain = 0
KARS 131208Z 27010KT M03/M06 A3009 RMK A01 T10251056  RH  079%=      5-min Rain = 0
KARS 131209Z 27011KT M03/M06 A3009 RMK A01 T10251056  RH  079%=      5-min Rain = 0
KARS 131210Z 27010KT M02/M06 A3009 RMK A01 T10241056  RH  079%=      5-min Rain = 0
KARS 131211Z 26011KT M02/M06 A3009 RMK A01 T10241056  RH  079%=      5-min Rain = 0
KARS 131212Z 26011KT M02/M06 A3008 RMK A01 T10231056  RH  078%=      5-min Rain = 0
KARS 131213Z 26011KT M02/M06 A3008 RMK A01 T10231056  RH  078%=      5-min Rain = 0
KARS 131214Z 26011KT M02/M06 A3008 RMK A01 T10231056  RH  078%=      5-min Rain = 0
KARS 131215Z 26010KT M02/M06 A3008 RMK A01 T10231056  RH  078%=      5-min Rain = 0
KARS 131216Z 26011KT M02/M06 A3008 RMK A01 T10231056  RH  078%=      5-min Rain = 0
KARS 131217Z 26011KT M02/M06 A3008 RMK A01 T10231056  RH  078%=      5-min Rain = 0
KARS 131218Z 26011KT M02/M06 A3008 RMK A01 T10231056  RH  078%=      5-min Rain = 0
KARS 131219Z 26011KT M02/M06 A3008 RMK A01 T10231056  RH  078%=      5-min Rain = 0
KARS 131220Z 26010KT M02/M06 A3008 RMK A01 T10231056  RH  078%=      5-min Rain = 0
KARS 131221Z 26010KT M02/M06 A3008 RMK A01 T10231055  RH  079%=      5-min Rain = 0
KARS 131222Z 26010KT M02/M06 A3008 RMK A01 T10231056  RH  078%=      5-min Rain = 0
KARS 131223Z 26010KT M02/M06 A3008 RMK A01 T10231056  RH  078%=      5-min Rain = 0
KARS 131224Z 26010KT M02/M06 A3008 RMK A01 T10231056  RH  078%=      5-min Rain = 0
KARS 131225Z 25009KT M02/M06 A3008 RMK A01 T10231056  RH  079%=      5-min Rain = 0
KARS 131226Z 25010KT M02/M06 A3008 RMK A01 T10231055  RH  079%=      5-min Rain = 0
KARS 131227Z 25009KT M02/M06 A3008 RMK A01 T10231056  RH  078%=      5-min Rain = 0
KARS 131228Z 26009KT M02/M06 A3008 RMK A01 T10221056  RH  078%=      5-min Rain = 0
KARS 131229Z 26009KT M02/M06 A3008 RMK A01 T10231056  RH  078%=      5-min Rain = 0
KARS 131230Z 26009KT M02/M06 A3008 RMK A01 T10231056  RH  078%=      5-min Rain = 0
KARS 131231Z 25009KT M02/M06 A3008 RMK A01 T10241056  RH  079%=      5-min Rain = 0
KARS 131232Z 25009KT M02/M06 A3008 RMK A01 T10241056  RH  079%=      5-min Rain = 0
KARS 131233Z 25008KT M02/M06 A3008 RMK A01 T10241056  RH  079%=      5-min Rain = 0
KARS 131234Z 26008KT M02/M06 A3008 RMK A01 T10241056  RH  079%=      5-min Rain = 0
KARS 131235Z 26008KT M03/M06 A3008 RMK A01 T10251056  RH  079%=      5-min Rain = 0
KARS 131236Z 26007KT M03/M06 A3008 RMK A01 T10261057  RH  079%=      5-min Rain = 0
KARS 131237Z 26007KT M03/M06 A3008 RMK A01 T10261057  RH  079%=      5-min Rain = 0
KARS 131238Z 26007KT M03/M06 A3008 RMK A01 T10261057  RH  079%=      5-min Rain = 0
KARS 131239Z 26006KT M03/M06 A3008 RMK A01 T10271057  RH  080%=      5-min Rain = 0
KARS 131240Z 26006KT M03/M06 A3008 RMK A01 T10281057  RH  080%=      5-min Rain = 0
KARS 131241Z 26007KT M03/M06 A3008 RMK A01 T10281058  RH  080%=      5-min Rain = 0
KARS 131242Z 26007KT M03/M06 A3008 RMK A01 T10281057  RH  080%=      5-min Rain = 0
KARS 131243Z 25007KT M03/M06 A3008 RMK A01 T10291057  RH  081%=      5-min Rain = 0
KARS 131244Z 26007KT M03/M06 A3008 RMK A01 T10291058  RH  081%=      5-min Rain = 0
KARS 131245Z 26007KT M03/M06 A3008 RMK A01 T10291057  RH  081%=      5-min Rain = 0
KARS 131246Z 26007KT M03/M06 A3008 RMK A01 T10291057  RH  081%=      5-min Rain = 0
KARS 131247Z 26007KT M03/M06 A3008 RMK A01 T10301057  RH  081%=      5-min Rain = 0
KARS 131248Z 26007KT M03/M06 A3008 RMK A01 T10301058  RH  081%=      5-min Rain = 0
KARS 131249Z 26008KT M03/M06 A3008 RMK A01 T10301058  RH  081%=      5-min Rain = 0
KARS 131250Z 26008KT M03/M06 A3008 RMK A01 T10301058  RH  081%=      5-min Rain = 0
KARS 131251Z 25009KT M03/M06 A3008 RMK A01 T10291057  RH  081%=      5-min Rain = 0
KARS 131252Z 25008KT M03/M06 A3008 RMK A01 T10281057  RH  081%=      5-min Rain = 0
KARS 131253Z 25009KT M03/M06 A3008 RMK A01 T10281057  RH  081%=      5-min Rain = 0
KARS 131254Z 25008KT M03/M06 A3008 RMK A01 T10281057  RH  081%=      5-min Rain = 0
KARS 131255Z 24008KT M03/M06 A3008 RMK A01 T10281057  RH  081%=      5-min Rain = 0
KARS 131256Z 25008KT M03/M06 A3008 RMK A01 T10281057  RH  081%=      5-min Rain = 0
KARS 131257Z 24008KT M03/M06 A3008 RMK A01 T10281057  RH  081%=      5-min Rain = 0
KARS 131258Z 24009KT M03/M06 A3008 RMK A01 T10281057  RH  081%=      5-min Rain = 0
KARS 131259Z 24009KT M03/M06 A3008 RMK A01 T10281057  RH  081%=      5-min Rain = 0
KARS 131300Z 24009KT M03/M06 A3008 RMK A01 T10281057  RH  080%=      5-min Rain = 0
KARS 131301Z 24009KT M03/M06 A3008 RMK A01 T10281058  RH  080%=      5-min Rain = 0
KARS 131302Z 24009KT M03/M06 A3008 RMK A01 T10291058  RH  080%=      5-min Rain = 0
KARS 131303Z 25010KT M03/M06 A3008 RMK A01 T10301058  RH  081%=      5-min Rain = 0
KARS 131304Z 25010KT M03/M06 A3008 RMK A01 T10301058  RH  081%=      5-min Rain = 0
KARS 131305Z 25009KT M03/M06 A3008 RMK A01 T10301059  RH  080%=      5-min Rain = 0
KARS 131306Z 25009KT M03/M06 A3008 RMK A01 T10301059  RH  081%=      5-min Rain = 0
KARS 131307Z 24009KT M03/M06 A3008 RMK A01 T10311059  RH  081%=      5-min Rain = 0
KARS 131308Z 25009KT M03/M06 A3008 RMK A01 T10311059  RH  081%=      5-min Rain = 0
KARS 131309Z 25008KT M03/M06 A3008 RMK A01 T10321060  RH  081%=      5-min Rain = 0
KARS 131310Z 25008KT M03/M06 A3008 RMK A01 T10321060  RH  081%=      5-min Rain = 0
KARS 131311Z 25009KT M03/M06 A3007 RMK A01 T10331060  RH  082%=      5-min Rain = 0
KARS 131312Z 24009KT M03/M06 A3007 RMK A01 T10331060  RH  082%=      5-min Rain = 0
KARS 131313Z 24009KT M03/M06 A3007 RMK A01 T10341060  RH  082%=      5-min Rain = 0
KARS 131314Z 24009KT M03/M06 A3007 RMK A01 T10341060  RH  082%=      5-min Rain = 0
KARS 131315Z 24010KT M03/M06 A3007 RMK A01 T10341060  RH  082%=      5-min Rain = 0
KARS 131316Z 24010KT M03/M06 A3007 RMK A01 T10341060  RH  082%=      5-min Rain = 0
KARS 131317Z 24010KT M03/M06 A3007 RMK A01 T10341060  RH  082%=      5-min Rain = 0
KARS 131318Z 24009KT M03/M06 A3007 RMK A01 T10341061  RH  082%=      5-min Rain = 0
KARS 131319Z 25010KT M03/M06 A3007 RMK A01 T10331061  RH  081%=      5-min Rain = 0
KARS 131320Z 25010KT M03/M06 A3007 RMK A01 T10331061  RH  081%=      5-min Rain = 0
KARS 131321Z 25011KT M03/M06 A3007 RMK A01 T10321061  RH  081%=      5-min Rain = 0
KARS 131322Z 25010KT M03/M06 A3007 RMK A01 T10311061  RH  080%=      5-min Rain = 0
KARS 131323Z 25011KT M03/M06 A3007 RMK A01 T10311061  RH  080%=      5-min Rain = 0
KARS 131324Z 25010KT M03/M06 A3007 RMK A01 T10311061  RH  080%=      5-min Rain = 0
KARS 131325Z 25011KT M03/M06 A3007 RMK A01 T10301061  RH  079%=      5-min Rain = 0
KARS 131326Z 26010KT M03/M06 A3007 RMK A01 T10301061  RH  079%=      5-min Rain = 0
KARS 131327Z 26011KT M03/M06 A3007 RMK A01 T10301061  RH  079%=      5-min Rain = 0
KARS 131328Z 26011KT M03/M06 A3007 RMK A01 T10301061  RH  079%=      5-min Rain = 0
KARS 131329Z 26011KT M03/M06 A3007 RMK A01 T10291061  RH  079%=      5-min Rain = 0
KARS 131330Z 26011KT M03/M06 A3007 RMK A01 T10291061  RH  078%=      5-min Rain = 0
KARS 131331Z 26012KT M03/M06 A3007 RMK A01 T10281061  RH  078%=      5-min Rain = 0
KARS 131332Z 26012KT M03/M06 A3007 RMK A01 T10271061  RH  077%=      5-min Rain = 0
KARS 131333Z 27012KT M03/M06 A3007 RMK A01 T10271061  RH  077%=      5-min Rain = 0
KARS 131334Z 27013KT M03/M06 A3007 RMK A01 T10271061  RH  077%=      5-min Rain = 0
KARS 131335Z 27012KT M03/M06 A3007 RMK A01 T10261061  RH  076%=      5-min Rain = 0
KARS 131336Z 27012KT M03/M06 A3007 RMK A01 T10261061  RH  076%=      5-min Rain = 0
KARS 131337Z 27012KT M03/M06 A3007 RMK A01 T10261061  RH  076%=      5-min Rain = 0
KARS 131338Z 27013KT M03/M06 A3007 RMK A01 T10251061  RH  076%=      5-min Rain = 0
KARS 131339Z 27012G17KT M02/M06 A3007 RMK A01 T10241061  RH  075%=      5-min Rain = 0
KARS 131340Z 27013KT M02/M06 A3007 RMK A01 T10231061  RH  075%=      5-min Rain = 0
KARS 131341Z 27013KT M02/M06 A3007 RMK A01 T10211061  RH  074%=      5-min Rain = 0
KARS 131342Z 27012G17KT M02/M06 A3007 RMK A01 T10201061  RH  074%=      5-min Rain = 0
KARS 131343Z 27013KT M02/M06 A3007 RMK A01 T10201060  RH  074%=      5-min Rain = 0
KARS 131344Z 27012KT M02/M06 A3007 RMK A01 T10191061  RH  073%=      5-min Rain = 0
KARS 131345Z 27013KT M02/M06 A3007 RMK A01 T10191061  RH  073%=      5-min Rain = 0
KARS 131346Z 27013KT M02/M06 A3007 RMK A01 T10191061  RH  073%=      5-min Rain = 0
KARS 131347Z 27013KT M02/M06 A3007 RMK A01 T10191061  RH  073%=      5-min Rain = 0
KARS 131348Z 27012KT M02/M06 A3007 RMK A01 T10191061  RH  073%=      5-min Rain = 0
KARS 131349Z 26013KT M02/M06 A3007 RMK A01 T10191060  RH  073%=      5-min Rain = 0
KARS 131350Z 26012KT M02/M06 A3007 RMK A01 T10191060  RH  073%=      5-min Rain = 0
KARS 131351Z 26012KT M02/M06 A3007 RMK A01 T10201060  RH  074%=      5-min Rain = 0
KARS 131352Z 26013KT M02/M06 A3007 RMK A01 T10201060  RH  074%=      5-min Rain = 0
KARS 131353Z 26012KT M02/M06 A3007 RMK A01 T10201061  RH  074%=      5-min Rain = 0
KARS 131354Z 26012KT M02/M06 A3007 RMK A01 T10201060  RH  074%=      5-min Rain = 0
KARS 131355Z 26013KT M02/M06 A3007 RMK A01 T10201061  RH  074%=      5-min Rain = 0
KARS 131356Z 26012KT M02/M06 A3007 RMK A01 T10201061  RH  074%=      5-min Rain = 0
KARS 131357Z 26012KT M02/M06 A3007 RMK A01 T10201061  RH  074%=      5-min Rain = 0
KARS 131358Z 26012KT M02/M06 A3007 RMK A01 T10201061  RH  073%=      5-min Rain = 0
KARS 131359Z 26013KT M02/M06 A3007 RMK A01 T10191061  RH  073%=      5-min Rain = 0
KARS 131400Z 27011KT M02/M06 A3007 RMK A01 T10191061  RH  073%=      5-min Rain = 0
KARS 131401Z 27011KT M02/M06 A3007 RMK A01 T10191061  RH  073%=      5-min Rain = 0
KARS 131402Z 26012KT M02/M06 A3007 RMK A01 T10191061  RH  073%=      5-min Rain = 0
KARS 131403Z 26012KT M02/M06 A3007 RMK A01 T10181061  RH  072%=      5-min Rain = 0
KARS 131404Z 26012KT M02/M06 A3007 RMK A01 T10181061  RH  072%=      5-min Rain = 0
KARS 131405Z 26012KT M02/M06 A3007 RMK A01 T10181061  RH  072%=      5-min Rain = 0
KARS 131406Z 26012KT M02/M06 A3007 RMK A01 T10181061  RH  072%=      5-min Rain = 0
KARS 131407Z 26011KT M02/M06 A3007 RMK A01 T10171061  RH  072%=      5-min Rain = 0
KARS 131408Z 26013KT M02/M06 A3007 RMK A01 T10171061  RH  072%=      5-min Rain = 0
KARS 131409Z 26012KT M02/M06 A3007 RMK A01 T10171061  RH  072%=      5-min Rain = 0
KARS 131410Z 26012KT M02/M06 A3007 RMK A01 T10161061  RH  071%=      5-min Rain = 0
KARS 131411Z 26011KT M02/M06 A3007 RMK A01 T10161060  RH  072%=      5-min Rain = 0
KARS 131412Z 26011KT M02/M06 A3007 RMK A01 T10161060  RH  072%=      5-min Rain = 0
KARS 131413Z 26011KT M02/M06 A3007 RMK A01 T10161060  RH  072%=      5-min Rain = 0
KARS 131414Z 26012KT M02/M06 A3007 RMK A01 T10161060  RH  072%=      5-min Rain = 0
KARS 131415Z 25012KT M02/M06 A3007 RMK A01 T10161061  RH  072%=      5-min Rain = 0
KARS 131416Z 25012KT M02/M06 A3007 RMK A01 T10151061  RH  071%=      5-min Rain = 0
KARS 131417Z 25013KT M01/M06 A3007 RMK A01 T10141061  RH  071%=      5-min Rain = 0
KARS 131418Z 25012KT M01/M06 A3007 RMK A01 T10131061  RH  070%=      5-min Rain = 0
KARS 131419Z 25012G17KT M01/M06 A3007 RMK A01 T10131060  RH  070%=      5-min Rain = 0
KARS 131420Z 25012KT M01/M06 A3007 RMK A01 T10131059  RH  070%=      5-min Rain = 0
KARS 131421Z 25012KT M01/M06 A3007 RMK A01 T10131060  RH  070%=      5-min Rain = 0
KARS 131422Z 26011KT M01/M06 A3007 RMK A01 T10131060  RH  070%=      5-min Rain = 0
KARS 131423Z 26011KT M01/M06 A3007 RMK A01 T10141059  RH  071%=      5-min Rain = 0
KARS 131424Z 26011KT M02/M06 A3007 RMK A01 T10151059  RH  072%=      5-min Rain = 0
KARS 131425Z 26011KT M02/M06 A3007 RMK A01 T10151060  RH  071%=      5-min Rain = 0
KARS 131426Z 26011KT M02/M06 A3007 RMK A01 T10151059  RH  072%=      5-min Rain = 0
KARS 131427Z 26011KT M02/M06 A3007 RMK A01 T10151059  RH  072%=      5-min Rain = 0
KARS 131428Z 26011KT M02/M06 A3007 RMK A01 T10151059  RH  072%=      5-min Rain = 0
KARS 131429Z 26010KT M01/M06 A3007 RMK A01 T10141060  RH  071%=      5-min Rain = 0
KARS 131430Z 26011KT M01/M06 A3007 RMK A01 T10141059  RH  071%=      5-min Rain = 0
KARS 131431Z 26010KT M01/M06 A3007 RMK A01 T10131058  RH  071%=      5-min Rain = 0
KARS 131432Z 25011KT M01/M06 A3007 RMK A01 T10121058  RH  071%=      5-min Rain = 0
KARS 131433Z 25011KT M01/M06 A3007 RMK A01 T10111058  RH  071%=      5-min Rain = 0
KARS 131434Z 26011KT M01/M06 A3007 RMK A01 T10111058  RH  070%=      5-min Rain = 0
KARS 131435Z 26011KT M01/M06 A3007 RMK A01 T10101057  RH  070%=      5-min Rain = 0
KARS 131436Z 26011KT M01/M06 A3006 RMK A01 T10091057  RH  070%=      5-min Rain = 0
KARS 131437Z 25012KT M01/M06 A3006 RMK A01 T10081056  RH  070%=      5-min Rain = 0
KARS 131438Z 25012KT M01/M06 A3006 RMK A01 T10081057  RH  069%=      5-min Rain = 0
KARS 131439Z 25012KT M01/M06 A3006 RMK A01 T10081057  RH  070%=      5-min Rain = 0
KARS 131440Z 25012KT M01/M06 A3006 RMK A01 T10081056  RH  070%=      5-min Rain = 0
KARS 131441Z 26012KT M01/M06 A3006 RMK A01 T10081056  RH  070%=      5-min Rain = 0
KARS 131442Z 25011KT M01/M06 A3006 RMK A01 T10071055  RH  070%=      5-min Rain = 0
KARS 131443Z 26012KT M01/M06 A3006 RMK A01 T10071055  RH  070%=      5-min Rain = 0
KARS 131444Z 26013KT M01/M05 A3006 RMK A01 T10061054  RH  070%=      5-min Rain = 0
KARS 131445Z 26013KT M01/M05 A3006 RMK A01 T10051054  RH  069%=      5-min Rain = 0
KARS 131446Z 25015KT M00/M05 A3006 RMK A01 T10041054  RH  069%=      5-min Rain = 0
KARS 131447Z 25013KT M00/M06 A3006 RMK A01 T10041055  RH  069%=      5-min Rain = 0
KARS 131448Z 25014KT M00/M05 A3006 RMK A01 T10041054  RH  069%=      5-min Rain = 0
KARS 131449Z 25013KT M00/M05 A3006 RMK A01 T10041053  RH  069%=      5-min Rain = 0
KARS 131450Z 25013KT M00/M05 A3006 RMK A01 T10041054  RH  069%=      5-min Rain = 0
KARS 131451Z 25014KT M00/M05 A3006 RMK A01 T10041052  RH  070%=      5-min Rain = 0
KARS 131452Z 25014KT M00/M05 A3006 RMK A01 T10041054  RH  069%=      5-min Rain = 0
KARS 131453Z 25012KT M00/M05 A3007 RMK A01 T10031053  RH  069%=      5-min Rain = 0
KARS 131454Z 25013KT M00/M05 A3007 RMK A01 T10031050  RH  070%=      5-min Rain = 0
KARS 131455Z 25014KT M00/M05 A3007 RMK A01 T10031051  RH  070%=      5-min Rain = 0
KARS 131456Z 26015KT M00/M05 A3007 RMK A01 T10021052  RH  069%=      5-min Rain = 0
KARS 131457Z 26014G19KT M00/M05 A3007 RMK A01 T10011051  RH  069%=      5-min Rain = 0
KARS 131458Z 25015KT 00/05 A3007 RMK A01 T00-00-50  RH  069%=      5-min Rain = 0
KARS 131459Z 26015G20KT 00/05 A3007 RMK A01 T00000-49  RH  069%=      5-min Rain = 0
KARS 131500Z 26015KT 00/M05 A3007 RMK A01 T00011050  RH  068%=      5-min Rain = 0
KARS 131501Z 26014KT 00/M05 A3007 RMK A01 T00011049  RH  069%=      5-min Rain = 0
KARS 131502Z 26016KT 00/M05 A3007 RMK A01 T00011050  RH  069%=      5-min Rain = 0
KARS 131503Z 26014KT 00/M05 A3007 RMK A01 T00011051  RH  068%=      5-min Rain = 0
KARS 131504Z 26016KT 00/M05 A3007 RMK A01 T00011050  RH  069%=      5-min Rain = 0
KARS 131505Z 26015KT 00/05 A3007 RMK A01 T00000-50  RH  069%=      5-min Rain = 0
KARS 131506Z 26014KT 00/05 A3007 RMK A01 T00000-48  RH  070%=      5-min Rain = 0
KARS 131507Z 26015G20KT 00/05 A3007 RMK A01 T00000-49  RH  070%=      5-min Rain = 0
KARS 131508Z 26015G20KT 00/05 A3007 RMK A01 T00-00-48  RH  070%=      5-min Rain = 0
KARS 131509Z 26015KT 00/05 A3007 RMK A01 T00000-49  RH  070%=      5-min Rain = 0
KARS 131510Z 25016KT 00/M05 A3006 RMK A01 T00011049  RH  069%=      5-min Rain = 0
KARS 131511Z 25015KT 00/M05 A3006 RMK A01 T00011049  RH  069%=      5-min Rain = 0
KARS 131512Z 25015KT 00/M05 A3006 RMK A01 T00021047  RH  069%=      5-min Rain = 0
KARS 131513Z 26016KT 00/M05 A3006 RMK A01 T00021048  RH  069%=      5-min Rain = 0
KARS 131514Z 26016KT 00/M05 A3006 RMK A01 T00031049  RH  069%=      5-min Rain = 0
KARS 131515Z 25015KT 00/M05 A3006 RMK A01 T00031047  RH  069%=      5-min Rain = 0
KARS 131516Z 26015G20KT 00/M05 A3006 RMK A01 T00031047  RH  069%=      5-min Rain = 0
KARS 131517Z 26015KT 00/M05 A3006 RMK A01 T00031046  RH  069%=      5-min Rain = 0
KARS 131518Z 25014KT 00/M05 A3006 RMK A01 T00041046  RH  069%=      5-min Rain = 0
KARS 131519Z 26015KT 00/M05 A3006 RMK A01 T00041045  RH  070%=      5-min Rain = 0
KARS 131520Z 26016KT 01/M05 A3007 RMK A01 T00051045  RH  069%=      5-min Rain = 0
KARS 131521Z 26015KT 01/M05 A3007 RMK A01 T00051045  RH  069%=      5-min Rain = 0
KARS 131522Z 26017KT 01/M05 A3007 RMK A01 T00061046  RH  068%=      5-min Rain = 0
KARS 131523Z 26016G22KT 01/M05 A3007 RMK A01 T00071045  RH  068%=      5-min Rain = 0
KARS 131524Z 26016G22KT 01/M05 A3007 RMK A01 T00071045  RH  068%=      5-min Rain = 0
KARS 131525Z 26016G22KT 01/M05 A3007 RMK A01 T00071045  RH  068%=      5-min Rain = 0
KARS 131526Z 26017KT 01/M05 A3007 RMK A01 T00071045  RH  068%=      5-min Rain = 0
KARS 131527Z 26016KT 01/M04 A3007 RMK A01 T00071044  RH  069%=      5-min Rain = 0
KARS 131528Z 26016G21KT 01/M04 A3007 RMK A01 T00071044  RH  069%=      5-min Rain = 0
KARS 131529Z 26016G21KT 01/M04 A3007 RMK A01 T00071043  RH  069%=      5-min Rain = 0
KARS 131530Z 26017KT 01/M04 A3007 RMK A01 T00081044  RH  068%=      5-min Rain = 0
KARS 131531Z 26019G24KT 01/M04 A3007 RMK A01 T00091044  RH  068%=      5-min Rain = 0
KARS 131532Z 26018G23KT 01/M05 A3007 RMK A01 T00101046  RH  066%=      5-min Rain = 0
KARS 131533Z 26018KT 01/M04 A3007 RMK A01 T00111044  RH  067%=      5-min Rain = 0
KARS 131534Z 26018G24KT 01/M05 A3006 RMK A01 T00111045  RH  066%=      5-min Rain = 0
KARS 131535Z 26018G23KT 01/M04 A3006 RMK A01 T00111044  RH  067%=      5-min Rain = 0
KARS 131536Z 26018G23KT 01/M04 A3006 RMK A01 T00111043  RH  067%=      5-min Rain = 0
KARS 131537Z 26018G24KT 01/M04 A3006 RMK A01 T00111043  RH  067%=      5-min Rain = 0
KARS 131538Z 26017G22KT 01/M04 A3006 RMK A01 T00111042  RH  068%=      5-min Rain = 0
KARS 131539Z 26019KT 01/M04 A3007 RMK A01 T00111042  RH  067%=      5-min Rain = 0
KARS 131540Z 26018G24KT 01/M04 A3007 RMK A01 T00121044  RH  066%=      5-min Rain = 0
KARS 131541Z 26016KT 01/M04 A3007 RMK A01 T00121042  RH  067%=      5-min Rain = 0
KARS 131542Z 26020KT 01/M04 A3007 RMK A01 T00131042  RH  067%=      5-min Rain = 0
KARS 131543Z 26017KT 01/M04 A3007 RMK A01 T00131042  RH  066%=      5-min Rain = 0
KARS 131544Z 26018KT 01/M04 A3007 RMK A01 T00141040  RH  068%=      5-min Rain = 0
KARS 131545Z 26016KT 01/M04 A3007 RMK A01 T00141041  RH  067%=      5-min Rain = 0
KARS 131546Z 26016G23KT 01/M04 A3007 RMK A01 T00141040  RH  067%=      5-min Rain = 0
KARS 131547Z 26016G21KT 01/M04 A3007 RMK A01 T00131040  RH  068%=      5-min Rain = 0
KARS 131548Z 26018KT 01/M04 A3007 RMK A01 T00121042  RH  067%=      5-min Rain = 0
KARS 131549Z 26017G22KT 01/M04 A3007 RMK A01 T00111042  RH  068%=      5-min Rain = 0
KARS 131550Z 25017G22KT 01/M04 A3007 RMK A01 T00101041  RH  069%=      5-min Rain = 0
KARS 131551Z 26017G22KT 01/M04 A3007 RMK A01 T00101040  RH  069%=      5-min Rain = 0
KARS 131552Z 26018G24KT 01/M04 A3007 RMK A01 T00101040  RH  069%=      5-min Rain = 0
KARS 131553Z 26019KT 01/M04 A3007 RMK A01 T00111044  RH  067%=      5-min Rain = 0
KARS 131554Z 26017KT 01/M04 A3007 RMK A01 T00121041  RH  068%=      5-min Rain = 0
KARS 131555Z 26016G21KT 01/M04 A3007 RMK A01 T00121040  RH  068%=      5-min Rain = 0
KARS 131556Z 26017KT 01/M04 A3007 RMK A01 T00121038  RH  069%=      5-min Rain = 0
KARS 131557Z 26018KT 01/M04 A3007 RMK A01 T00121041  RH  068%=      5-min Rain = 0
KARS 131558Z 26017G22KT 01/M04 A3007 RMK A01 T00121041  RH  068%=      5-min Rain = 0
KARS 131559Z 26018KT 01/M04 A3007 RMK A01 T00111042  RH  068%=      5-min Rain = 0
KARS 131600Z 26016G21KT 01/M04 A3007 RMK A01 T00111042  RH  067%=      5-min Rain = 0
KARS 131601Z 25017KT 01/M04 A3007 RMK A01 T00111040  RH  069%=      5-min Rain = 0
KARS 131602Z 25016KT 01/M04 A3007 RMK A01 T00111041  RH  069%=      5-min Rain = 0
KARS 131603Z 25017KT 01/M04 A3007 RMK A01 T00111040  RH  069%=      5-min Rain = 0
KARS 131604Z 25017KT 01/M04 A3007 RMK A01 T00111041  RH  068%=      5-min Rain = 0
KARS 131605Z 25015KT 01/M04 A3007 RMK A01 T00111040  RH  069%=      5-min Rain = 0
KARS 131606Z 25014KT 01/M04 A3007 RMK A01 T00111038  RH  070%=      5-min Rain = 0
KARS 131607Z 25016KT 01/M04 A3007 RMK A01 T00111038  RH  070%=      5-min Rain = 0
KARS 131608Z 25017KT 01/M04 A3007 RMK A01 T00111040  RH  069%=      5-min Rain = 0
KARS 131609Z 25016KT 01/M04 A3007 RMK A01 T00111040  RH  069%=      5-min Rain = 0
KARS 131610Z 25017G22KT 01/M04 A3007 RMK A01 T00111040  RH  069%=      5-min Rain = 0
KARS 131611Z 25018KT 01/M04 A3007 RMK A01 T00111041  RH  068%=      5-min Rain = 0
KARS 131612Z 25017KT 01/M04 A3007 RMK A01 T00111040  RH  069%=      5-min Rain = 0
KARS 131613Z 25018KT 01/M04 A3007 RMK A01 T00131039  RH  068%=      5-min Rain = 0
KARS 131614Z 25018KT 01/M04 A3007 RMK A01 T00141039  RH  068%=      5-min Rain = 0
KARS 131615Z 25017KT 02/M04 A3007 RMK A01 T00161037  RH  068%=      5-min Rain = 0
KARS 131616Z 25018G24KT 02/M04 A3007 RMK A01 T00171037  RH  067%=      5-min Rain = 0
KARS 131617Z 25017KT 02/M04 A3007 RMK A01 T00181036  RH  067%=      5-min Rain = 0
KARS 131618Z 25019G25KT 02/M03 A3007 RMK A01 T00201034  RH  068%=      5-min Rain = 0
KARS 131619Z 25019G25KT 02/M04 A3007 RMK A01 T00211042  RH  063%=      5-min Rain = 0
KARS 131620Z 25016G23KT 02/M04 A3007 RMK A01 T00221035  RH  066%=      5-min Rain = 0
KARS 131621Z 26018G23KT 02/M04 A3007 RMK A01 T00231035  RH  066%=      5-min Rain = 0
KARS 131622Z 26017G22KT 02/M04 A3008 RMK A01 T00231039  RH  064%=      5-min Rain = 0
KARS 131623Z 26016G21KT 02/M04 A3008 RMK A01 T00231036  RH  065%=      5-min Rain = 0
KARS 131624Z 25016KT 02/M04 A3008 RMK A01 T00241035  RH  065%=      5-min Rain = 0
KARS 131625Z 25017G22KT 02/M04 A3008 RMK A01 T00241036  RH  065%=      5-min Rain = 0
KARS 131626Z 26014KT 02/M03 A3008 RMK A01 T00231034  RH  066%=      5-min Rain = 0
KARS 131627Z 25016G21KT 02/M04 A3008 RMK A01 T00221035  RH  066%=      5-min Rain = 0
KARS 131628Z 26015G21KT 02/M04 A3007 RMK A01 T00221035  RH  066%=      5-min Rain = 0
KARS 131629Z 26016G21KT 02/M04 A3007 RMK A01 T00221038  RH  065%=      5-min Rain = 0
KARS 131630Z 26015KT 02/M04 A3007 RMK A01 T00221036  RH  065%=      5-min Rain = 0
KARS 131631Z 26015KT 02/M04 A3007 RMK A01 T00211037  RH  065%=      5-min Rain = 0
KARS 131632Z 26015KT 02/M04 A3007 RMK A01 T00211037  RH  066%=      5-min Rain = 0
KARS 131633Z 27014KT 02/M04 A3007 RMK A01 T00221036  RH  066%=      5-min Rain = 0
KARS 131634Z 26015KT 02/M04 A3007 RMK A01 T00231035  RH  066%=      5-min Rain = 0
KARS 131635Z 26016KT 02/M04 A3007 RMK A01 T00241035  RH  065%=      5-min Rain = 0
KARS 131636Z 26016KT 03/M03 A3006 RMK A01 T00261033  RH  065%=      5-min Rain = 0
KARS 131637Z 26015G20KT 03/M03 A3006 RMK A01 T00291033  RH  064%=      5-min Rain = 0
KARS 131638Z 26017G22KT 03/M03 A3006 RMK A01 T00311032  RH  063%=      5-min Rain = 0
KARS 131639Z 26015G20KT 03/M03 A3006 RMK A01 T00331033  RH  062%=      5-min Rain = 0
KARS 131640Z 26017G22KT 04/M03 A3006 RMK A01 T00361030  RH  062%=      5-min Rain = 0
KARS 131641Z 26017KT 04/M03 A3006 RMK A01 T00371031  RH  061%=      5-min Rain = 0
KARS 131642Z 26018KT 04/M03 A3006 RMK A01 T00381033  RH  060%=      5-min Rain = 0
KARS 131643Z 26017KT 04/M03 A3006 RMK A01 T00401031  RH  060%=      5-min Rain = 0
KARS 131644Z 26018KT 04/M03 A3006 RMK A01 T00411034  RH  058%=      5-min Rain = 0
KARS 131645Z 26018G24KT 04/M03 A3006 RMK A01 T00411034  RH  058%=      5-min Rain = 0
KARS 131646Z 26017KT 04/M03 A3006 RMK A01 T00401032  RH  059%=      5-min Rain = 0
KARS 131647Z 26018G23KT 04/M03 A3006 RMK A01 T00411034  RH  058%=      5-min Rain = 0
KARS 131648Z 26017G25KT 04/M03 A3006 RMK A01 T00431031  RH  058%=      5-min Rain = 0
KARS 131649Z 26018KT 05/M04 A3006 RMK A01 T00451035  RH  056%=      5-min Rain = 0
KARS 131650Z 26018G24KT 05/M04 A3006 RMK A01 T00461036  RH  055%=      5-min Rain = 0
KARS 131651Z 26017KT 05/M04 A3006 RMK A01 T00481037  RH  054%=      5-min Rain = 0
KARS 131652Z 26020G26KT 05/M04 A3006 RMK A01 T00491040  RH  053%=      5-min Rain = 0
KARS 131653Z 26020KT 05/M04 A3006 RMK A01 T00501043  RH  051%=      5-min Rain = 0
KARS 131654Z 26019G24KT 05/M04 A3006 RMK A01 T00511042  RH  051%=      5-min Rain = 0
KARS 131655Z 27018G24KT 05/M04 A3006 RMK A01 T00511040  RH  052%=      5-min Rain = 0
KARS 131656Z 27021G26KT 05/M04 A3006 RMK A01 T00501044  RH  050%=      5-min Rain = 0
KARS 131657Z 27021G26KT 05/M05 A3006 RMK A01 T00501048  RH  049%=      5-min Rain = 0
KARS 131658Z 27019G24KT 05/M04 A3006 RMK A01 T00491043  RH  051%=      5-min Rain = 0
KARS 131659Z 27019G24KT 05/M04 A3006 RMK A01 T00491043  RH  051%=      5-min Rain = 0
KARS 131700Z 27018KT 05/M04 A3006 RMK A01 T00501040  RH  052%=      5-min Rain = 0
KARS 131701Z 27017KT 05/M04 A3006 RMK A01 T00511036  RH  053%=      5-min Rain = 0
KARS 131702Z 27016KT 05/M03 A3006 RMK A01 T00541030  RH  055%=      5-min Rain = 0
KARS 131703Z 26018G24KT 06/M03 A3006 RMK A01 T00571029  RH  054%=      5-min Rain = 0
KARS 131704Z 26019KT 06/M04 A3006 RMK A01 T00581037  RH  050%=      5-min Rain = 0
KARS 131705Z 26018G23KT 06/M04 A3006 RMK A01 T00581035  RH  051%=      5-min Rain = 0
KARS 131706Z 26019G24KT 06/M03 A3006 RMK A01 T00581033  RH  052%=      5-min Rain = 0
KARS 131707Z 26018KT 06/M03 A3006 RMK A01 T00591033  RH  052%=      5-min Rain = 0
KARS 131708Z 26019G24KT 06/M03 A3006 RMK A01 T00591033  RH  051%=      5-min Rain = 0
KARS 131709Z 26019KT 06/M04 A3005 RMK A01 T00591037  RH  050%=      5-min Rain = 0
KARS 131710Z 26019KT 06/M03 A3006 RMK A01 T00601034  RH  051%=      5-min Rain = 0
KARS 131711Z 26017G23KT 06/M03 A3006 RMK A01 T00601033  RH  051%=      5-min Rain = 0
KARS 131712Z 26019KT 06/M03 A3006 RMK A01 T00601031  RH  052%=      5-min Rain = 0
KARS 131713Z 26019KT 06/M03 A3005 RMK A01 T00611034  RH  051%=      5-min Rain = 0
KARS 131714Z 26019KT 06/M03 A3005 RMK A01 T00601032  RH  052%=      5-min Rain = 0
KARS 131715Z 26018KT 06/M03 A3005 RMK A01 T00601034  RH  051%=      5-min Rain = 0
KARS 131716Z 26019G24KT 06/M04 A3005 RMK A01 T00591035  RH  051%=      5-min Rain = 0
KARS 131717Z 26017KT 06/M03 A3005 RMK A01 T00581031  RH  053%=      5-min Rain = 0
KARS 131718Z 26018G23KT 06/M03 A3005 RMK A01 T00581029  RH  053%=      5-min Rain = 0
KARS 131719Z 25019KT 06/M04 A3005 RMK A01 T00571035  RH  051%=      5-min Rain = 0
KARS 131720Z 26018KT 06/M03 A3005 RMK A01 T00561033  RH  052%=      5-min Rain = 0
KARS 131721Z 25017KT 06/M03 A3005 RMK A01 T00561032  RH  053%=      5-min Rain = 0
KARS 131722Z 25017KT 06/M03 A3005 RMK A01 T00551032  RH  054%=      5-min Rain = 0
KARS 131723Z 25017KT 05/M03 A3005 RMK A01 T00541032  RH  054%=      5-min Rain = 0
KARS 131724Z 25015KT 05/M03 A3005 RMK A01 T00541027  RH  056%=      5-min Rain = 0
KARS 131725Z 25018KT 06/M03 A3005 RMK A01 T00551028  RH  055%=      5-min Rain = 0
KARS 131726Z 25015KT 06/M03 A3005 RMK A01 T00551026  RH  056%=      5-min Rain = 0
KARS 131727Z 25018KT 06/M03 A3004 RMK A01 T00551027  RH  055%=      5-min Rain = 0
KARS 131728Z 25019G24KT 06/M03 A3004 RMK A01 T00561030  RH  054%=      5-min Rain = 0
KARS 131729Z 25020KT 06/M03 A3004 RMK A01 T00561031  RH  053%=      5-min Rain = 0
KARS 131730Z 25020KT 06/M03 A3004 RMK A01 T00561034  RH  052%=      5-min Rain = 0
KARS 131731Z 25018G23KT 06/M03 A3004 RMK A01 T00571033  RH  052%=      5-min Rain = 0
KARS 131732Z 26019G24KT 06/M03 A3004 RMK A01 T00581031  RH  053%=      5-min Rain = 0
KARS 131733Z 26018KT 06/M03 A3004 RMK A01 T00591032  RH  052%=      5-min Rain = 0
KARS 131734Z 25020KT 06/M03 A3004 RMK A01 T00591033  RH  052%=      5-min Rain = 0
KARS 131735Z 26019KT 06/M03 A3004 RMK A01 T00601033  RH  051%=      5-min Rain = 0
KARS 131736Z 26019G24KT 06/M03 A3004 RMK A01 T00601033  RH  051%=      5-min Rain = 0
KARS 131737Z 26020G26KT 06/M04 A3004 RMK A01 T00611035  RH  050%=      5-min Rain = 0
KARS 131738Z 26019KT 06/M03 A3004 RMK A01 T00611034  RH  051%=      5-min Rain = 0
KARS 131739Z 26020KT 06/M03 A3004 RMK A01 T00621031  RH  051%=      5-min Rain = 0
KARS 131740Z 26019KT 06/M03 A3004 RMK A01 T00621031  RH  051%=      5-min Rain = 0
KARS 131741Z 25020KT 06/M03 A3004 RMK A01 T00631032  RH  050%=      5-min Rain = 0
KARS 131742Z 26019G24KT 06/M03 A3004 RMK A01 T00631033  RH  050%=      5-min Rain = 0
KARS 131743Z 26017G22KT 06/M03 A3004 RMK A01 T00641028  RH  052%=      5-min Rain = 0
KARS 131744Z 26018G24KT 07/M03 A3003 RMK A01 T00651028  RH  051%=      5-min Rain = 0
KARS 131745Z 26019G24KT 07/M03 A3003 RMK A01 T00661032  RH  050%=      5-min Rain = 0
KARS 131746Z 26020G25KT 07/M03 A3003 RMK A01 T00661028  RH  051%=      5-min Rain = 0
KARS 131747Z 26019G24KT 07/M03 A3003 RMK A01 T00661031  RH  050%=      5-min Rain = 0
KARS 131748Z 26018G24KT 07/M03 A3003 RMK A01 T00671026  RH  051%=      5-min Rain = 0
KARS 131749Z 26020G25KT 07/M03 A3003 RMK A01 T00681029  RH  050%=      5-min Rain = 0
KARS 131750Z 26017G22KT 07/M03 A3003 RMK A01 T00691025  RH  051%=      5-min Rain = 0
KARS 131751Z 25020G25KT 07/M03 A3003 RMK A01 T00701027  RH  050%=      5-min Rain = 0
KARS 131752Z 25021KT 07/M03 A3003 RMK A01 T00701030  RH  049%=      5-min Rain = 0
KARS 131753Z 26020KT 07/M03 A3003 RMK A01 T00701028  RH  050%=      5-min Rain = 0
KARS 131754Z 26017KT 07/M03 A3003 RMK A01 T00701025  RH  051%=      5-min Rain = 0
KARS 131755Z 25021KT 07/M02 A3003 RMK A01 T00721024  RH  051%=      5-min Rain = 0
KARS 131756Z 25020KT 07/M03 A3003 RMK A01 T00721028  RH  049%=      5-min Rain = 0
KARS 131757Z 26019KT 07/M03 A3003 RMK A01 T00721027  RH  049%=      5-min Rain = 0
KARS 131758Z 26017KT 07/M03 A3003 RMK A01 T00721027  RH  049%=      5-min Rain = 0
KARS 131759Z 26017KT 07/M02 A3003 RMK A01 T00731024  RH  050%=      5-min Rain = 0
KARS 131800Z 26020KT 07/M03 A3003 RMK A01 T00741025  RH  050%=      5-min Rain = 0
KARS 131801Z 26018KT 07/M03 A3002 RMK A01 T00731029  RH  048%=      5-min Rain = 0
KARS 131802Z 26017KT 07/M02 A3002 RMK A01 T00731021  RH  051%=      5-min Rain = 0
KARS 131803Z 27018G23KT 08/M02 A3002 RMK A01 T00751024  RH  049%=      5-min Rain = 0
KARS 131804Z 26018KT 08/M03 A3002 RMK A01 T00751026  RH  049%=      5-min Rain = 0
KARS 131805Z 26018KT 08/M03 A3002 RMK A01 T00751026  RH  049%=      5-min Rain = 0
KARS 131806Z 26016KT 08/M02 A3002 RMK A01 T00761023  RH  050%=      5-min Rain = 0
KARS 131807Z 26017KT 08/M02 A3002 RMK A01 T00781020  RH  050%=      5-min Rain = 0
KARS 131808Z 26017KT 08/M02 A3002 RMK A01 T00791021  RH  049%=      5-min Rain = 0
KARS 131809Z 27018KT 08/M03 A3002 RMK A01 T00801025  RH  047%=      5-min Rain = 0
KARS 131810Z 27018KT 08/M03 A3002 RMK A01 T00791025  RH  048%=      5-min Rain = 0
KARS 131811Z 26017KT 08/M03 A3002 RMK A01 T00791025  RH  048%=      5-min Rain = 0
KARS 131812Z 26017KT 08/M02 A3002 RMK A01 T00781021  RH  049%=      5-min Rain = 0
KARS 131813Z 26017KT 08/M02 A3002 RMK A01 T00791023  RH  049%=      5-min Rain = 0
KARS 131814Z 26016KT 08/M02 A3001 RMK A01 T00791023  RH  048%=      5-min Rain = 0
KARS 131815Z 26015KT 08/M02 A3001 RMK A01 T00791019  RH  050%=      5-min Rain = 0
KARS 131816Z 26016KT 08/M02 A3001 RMK A01 T00791023  RH  049%=      5-min Rain = 0
KARS 131817Z 26016KT 08/M02 A3001 RMK A01 T00781021  RH  049%=      5-min Rain = 0
KARS 131818Z 26015KT 08/M02 A3001 RMK A01 T00781020  RH  050%=      5-min Rain = 0
KARS 131819Z 26014KT 08/M02 A3001 RMK A01 T00781021  RH  049%=      5-min Rain = 0
KARS 131820Z 26017KT 08/M02 A3001 RMK A01 T00781024  RH  049%=      5-min Rain = 0
KARS 131821Z 26014KT 08/M03 A3001 RMK A01 T00771025  RH  048%=      5-min Rain = 0
KARS 131822Z 26013KT 08/M02 A3001 RMK A01 T00771023  RH  049%=      5-min Rain = 0
KARS 131823Z 26013KT 08/M02 A3001 RMK A01 T00781022  RH  049%=      5-min Rain = 0
KARS 131824Z 26013KT 08/M02 A3001 RMK A01 T00781023  RH  049%=      5-min Rain = 0
KARS 131825Z 26011G16KT 08/M02 A3001 RMK A01 T00791019  RH  050%=      5-min Rain = 0
KARS 131826Z 26013KT 08/M02 A30 RMK A01 T00791021  RH  049%=      5-min Rain = 0
KARS 131827Z 26014KT 08/M02 A30 RMK A01 T00801022  RH  048%=      5-min Rain = 0
KARS 131828Z 26015KT 08/M02 A30 RMK A01 T00801024  RH  048%=      5-min Rain = 0
KARS 131829Z 26014KT 08/M02 A30 RMK A01 T00801022  RH  048%=      5-min Rain = 0
KARS 131830Z 26013KT 08/M02 A30 RMK A01 T00811023  RH  048%=      5-min Rain = 0
KARS 131831Z 26013KT 08/M02 A30 RMK A01 T00831022  RH  048%=      5-min Rain = 0
KARS 131832Z 26012KT 08/M02 A30 RMK A01 T00841021  RH  048%=      5-min Rain = 0
KARS 131833Z 25011KT 08/M02 A30 RMK A01 T00841018  RH  049%=      5-min Rain = 0
KARS 131834Z 26013KT 09/M02 A30 RMK A01 T00851021  RH  048%=      5-min Rain = 0
KARS 131835Z 26013KT 09/M02 A2999 RMK A01 T00851019  RH  048%=      5-min Rain = 0
KARS 131836Z 25014KT 09/M02 A2999 RMK A01 T00851024  RH  046%=      5-min Rain = 0
KARS 131837Z 26013KT 08/M03 A2999 RMK A01 T00841026  RH  046%=      5-min Rain = 0
KARS 131838Z 26012KT 08/M02 A2999 RMK A01 T00841024  RH  047%=      5-min Rain = 0
KARS 131839Z 26012KT 08/M02 A2999 RMK A01 T00841022  RH  047%=      5-min Rain = 0
KARS 131840Z 27013KT 08/M03 A2999 RMK A01 T00841026  RH  046%=      5-min Rain = 0
KARS 131841Z 27012KT 09/M02 A2999 RMK A01 T00861021  RH  047%=      5-min Rain = 0
KARS 131842Z 26013KT 09/M03 A2999 RMK A01 T00871025  RH  045%=      5-min Rain = 0
KARS 131843Z 26014KT 09/M03 A2999 RMK A01 T00881025  RH  045%=      5-min Rain = 0
KARS 131844Z 26015KT 09/M03 A2999 RMK A01 T00891027  RH  044%=      5-min Rain = 0
KARS 131845Z 26013KT 09/M02 A2999 RMK A01 T00891023  RH  045%=      5-min Rain = 0
KARS 131846Z 26015KT 09/M02 A2999 RMK A01 T00911021  RH  045%=      5-min Rain = 0
KARS 131847Z 26015KT 09/M02 A2999 RMK A01 T00911024  RH  044%=      5-min Rain = 0
KARS 131848Z 26014KT 09/M02 A2999 RMK A01 T00921018  RH  046%=      5-min Rain = 0
KARS 131849Z 27012KT 09/M02 A2999 RMK A01 T00941019  RH  045%=      5-min Rain = 0
KARS 131850Z 26014KT 10/M02 A2998 RMK A01 T00961018  RH  045%=      5-min Rain = 0
KARS 131851Z 27017KT 10/M03 A2998 RMK A01 T00961029  RH  041%=      5-min Rain = 0
KARS 131852Z 27016KT 10/M03 A2998 RMK A01 T00951026  RH  043%=      5-min Rain = 0
KARS 131853Z 27016KT 10/M03 A2998 RMK A01 T00951030  RH  041%=      5-min Rain = 0
KARS 131854Z 27016KT 10/M03 A2998 RMK A01 T00951027  RH  042%=      5-min Rain = 0
KARS 131855Z 28017KT 10/M03 A2998 RMK A01 T00951032  RH  041%=      5-min Rain = 0
KARS 131856Z 28015KT 09/M03 A2998 RMK A01 T00941034  RH  041%=      5-min Rain = 0
KARS 131857Z 27013KT 09/M02 A2998 RMK A01 T00941021  RH  044%=      5-min Rain = 0
KARS 131858Z 27016KT 10/M02 A2998 RMK A01 T00961024  RH  043%=      5-min Rain = 0
KARS 131859Z 27014KT 10/M02 A2998 RMK A01 T00961023  RH  043%=      5-min Rain = 0
KARS 131900Z 27012KT 10/M03 A2998 RMK A01 T00971025  RH  042%=      5-min Rain = 0
KARS 131901Z 27015KT 10/M03 A2998 RMK A01 T00971025  RH  042%=      5-min Rain = 0
KARS 131902Z 28015G20KT 10/M03 A2998 RMK A01 T00971027  RH  042%=      5-min Rain = 0
KARS 131903Z 27016KT 10/M03 A2998 RMK A01 T00961026  RH  042%=      5-min Rain = 0
KARS 131904Z 27015KT 10/M03 A2998 RMK A01 T00961025  RH  042%=      5-min Rain = 0
KARS 131905Z 27016KT 10/M03 A2997 RMK A01 T00971025  RH  042%=      5-min Rain = 0
KARS 131906Z 27013KT 10/M03 A2997 RMK A01 T00971027  RH  042%=      5-min Rain = 0
KARS 131907Z 26012KT 10/M02 A2997 RMK A01 T00971020  RH  044%=      5-min Rain = 0
KARS 131908Z 26014KT 10/M02 A2997 RMK A01 T01001018  RH  044%=      5-min Rain = 0
KARS 131909Z 26014KT 10/M02 A2997 RMK A01 T01001024  RH  042%=      5-min Rain = 0
KARS 131910Z 26014KT 10/M02 A2996 RMK A01 T00981021  RH  043%=      5-min Rain = 0
KARS 131911Z 25014KT 10/M02 A2996 RMK A01 T00991021  RH  043%=      5-min Rain = 0
KARS 131912Z 26014KT 10/M02 A2996 RMK A01 T00991021  RH  043%=      5-min Rain = 0
KARS 131913Z 26013KT 10/M02 A2996 RMK A01 T01001024  RH  042%=      5-min Rain = 0
KARS 131914Z 26011KT 10/M02 A2996 RMK A01 T00991023  RH  042%=      5-min Rain = 0
KARS 131915Z 26011KT 10/M01 A2996 RMK A01 T01001013  RH  045%=      5-min Rain = 0
KARS 131916Z 26014KT 10/M02 A2995 RMK A01 T01031020  RH  042%=      5-min Rain = 0
KARS 131917Z 25013KT 10/M02 A2995 RMK A01 T01021019  RH  043%=      5-min Rain = 0
KARS 131918Z 25013KT 10/M02 A2995 RMK A01 T01021022  RH  042%=      5-min Rain = 0
KARS 131919Z 24015KT 10/M02 A2995 RMK A01 T01021024  RH  041%=      5-min Rain = 0
KARS 131920Z 25012KT 10/M02 A2995 RMK A01 T01011022  RH  042%=      5-min Rain = 0
KARS 131921Z 25011KT 10/M02 A2995 RMK A01 T01011018  RH  043%=      5-min Rain = 0
KARS 131922Z 26012KT 10/M01 A2995 RMK A01 T01021014  RH  044%=      5-min Rain = 0
KARS 131923Z 26012KT 10/M02 A2995 RMK A01 T01041015  RH  043%=      5-min Rain = 0
KARS 131924Z 26013KT 11/M02 A2995 RMK A01 T01051020  RH  042%=      5-min Rain = 0
KARS 131925Z 27014KT 10/M02 A2995 RMK A01 T01041018  RH  042%=      5-min Rain = 0
KARS 131926Z 26011KT 10/M02 A2995 RMK A01 T01041015  RH  044%=      5-min Rain = 0
KARS 131927Z 27013KT 11/M01 A2995 RMK A01 T01051010  RH  045%=      5-min Rain = 0
KARS 131928Z 26013KT 11/M01 A2995 RMK A01 T01061014  RH  043%=      5-min Rain = 0
KARS 131929Z 26014KT 11/M01 A2995 RMK A01 T01071011  RH  044%=      5-min Rain = 0
KARS 131930Z 27015KT 11/M02 A2995 RMK A01 T01071020  RH  041%=      5-min Rain = 0
KARS 131931Z 27015KT 11/M02 A2995 RMK A01 T01051021  RH  041%=      5-min Rain = 0
KARS 131932Z 27015KT 11/M02 A2995 RMK A01 T01051017  RH  042%=      5-min Rain = 0
KARS 131933Z 27015KT 11/M02 A2995 RMK A01 T01051019  RH  042%=      5-min Rain = 0
KARS 131934Z 27014KT 11/M02 A2995 RMK A01 T01061019  RH  042%=      5-min Rain = 0
KARS 131935Z 26012KT 11/M01 A2995 RMK A01 T01071010  RH  044%=      5-min Rain = 0
KARS 131936Z 26013G18KT 11/M02 A2995 RMK A01 T01091016  RH  042%=      5-min Rain = 0
KARS 131937Z 26015KT 11/M02 A2995 RMK A01 T01091016  RH  042%=      5-min Rain = 0
KARS 131938Z 26013KT 11/M01 A2995 RMK A01 T01091013  RH  043%=      5-min Rain = 0
KARS 131939Z 27013KT 11/M01 A2995 RMK A01 T01091014  RH  042%=      5-min Rain = 0
KARS 131940Z 26013KT 11/M02 A2995 RMK A01 T01091017  RH  041%=      5-min Rain = 0
KARS 131941Z 26014KT 11/M01 A2994 RMK A01 T01091013  RH  043%=      5-min Rain = 0
KARS 131942Z 26014KT 11/M02 A2994 RMK A01 T01101016  RH  041%=      5-min Rain = 0
KARS 131943Z 26013KT 11/M02 A2994 RMK A01 T01101017  RH  041%=      5-min Rain = 0
KARS 131944Z 25015KT 11/M02 A2994 RMK A01 T01101016  RH  042%=      5-min Rain = 0
KARS 131945Z 27014KT 11/M02 A2994 RMK A01 T01101020  RH  040%=      5-min Rain = 0
KARS 131946Z 26012KT 11/M02 A2994 RMK A01 T01091021  RH  040%=      5-min Rain = 0
KARS 131947Z 25013KT 11/M02 A2994 RMK A01 T01091018  RH  041%=      5-min Rain = 0
KARS 131948Z 25013KT 11/M01 A2994 RMK A01 T01111012  RH  042%=      5-min Rain = 0
KARS 131949Z 25015KT 11/M02 A2994 RMK A01 T01121017  RH  041%=      5-min Rain = 0
KARS 131950Z 25014KT 11/M02 A2993 RMK A01 T01121018  RH  040%=      5-min Rain = 0
KARS 131951Z 25013KT 11/M01 A2993 RMK A01 T01121013  RH  042%=      5-min Rain = 0
KARS 131952Z 26011KT 11/M02 A2993 RMK A01 T01121015  RH  041%=      5-min Rain = 0
KARS 131953Z 27011KT 11/M01 A2993 RMK A01 T01141013  RH  041%=      5-min Rain = 0
KARS 131954Z 26015KT 12/M02 A2993 RMK A01 T01151015  RH  040%=      5-min Rain = 0
KARS 131955Z 26012KT 12/M02 A2993 RMK A01 T01151016  RH  040%=      5-min Rain = 0
KARS 131956Z 26011KT 11/M01 A2993 RMK A01 T01141013  RH  041%=      5-min Rain = 0
KARS 131957Z 26014KT 11/M01 A2993 RMK A01 T01141011  RH  042%=      5-min Rain = 0
KARS 131958Z 26015KT 12/M01 A2993 RMK A01 T01151014  RH  041%=      5-min Rain = 0
KARS 131959Z 26015KT 12/M01 A2993 RMK A01 T01151011  RH  042%=      5-min Rain = 0
KARS 132000Z 26013KT 12/M01 A2993 RMK A01 T01151014  RH  041%=      5-min Rain = 0
KARS 132001Z 26011KT 12/M01 A2993 RMK A01 T01151013  RH  041%=      5-min Rain = 0
KARS 132002Z 26012KT 12/M02 A2992 RMK A01 T01151015  RH  040%=      5-min Rain = 0
KARS 132003Z 26013KT 12/M01 A2992 RMK A01 T01161010  RH  041%=      5-min Rain = 0
KARS 132004Z 26014KT 12/M01 A2992 RMK A01 T01171010  RH  041%=      5-min Rain = 0
KARS 132005Z 26014KT 12/M01 A2992 RMK A01 T01171014  RH  040%=      5-min Rain = 0
KARS 132006Z 27013KT 12/M01 A2992 RMK A01 T01181012  RH  040%=      5-min Rain = 0
KARS 132007Z 28011KT 12/M02 A2992 RMK A01 T01201018  RH  038%=      5-min Rain = 0
KARS 132008Z 27014KT 12/M01 A2992 RMK A01 T01231013  RH  039%=      5-min Rain = 0
KARS 132009Z 28015KT 13/M03 A2992 RMK A01 T01251025  RH  035%=      5-min Rain = 0
KARS 132010Z 27014KT 12/M02 A2992 RMK A01 T01241020  RH  037%=      5-min Rain = 0
KARS 132011Z 28013KT 12/M02 A2992 RMK A01 T01241019  RH  037%=      5-min Rain = 0
KARS 132012Z 28014KT 13/M02 A2992 RMK A01 T01251020  RH  036%=      5-min Rain = 0
KARS 132013Z 28013KT 12/M02 A2991 RMK A01 T01241024  RH  035%=      5-min Rain = 0
KARS 132014Z 27014KT 12/M02 A2991 RMK A01 T01231018  RH  037%=      5-min Rain = 0
KARS 132015Z 26012KT 12/M01 A2991 RMK A01 T01241013  RH  039%=      5-min Rain = 0
KARS 132016Z 25012KT 12/M00 A2991 RMK A01 T01241004  RH  041%=      5-min Rain = 0
KARS 132017Z 27011KT 12/M00 A2991 RMK A01 T01241003  RH  042%=      5-min Rain = 0
KARS 132018Z 27010KT 12/M01 A2991 RMK A01 T01241006  RH  041%=      5-min Rain = 0
KARS 132019Z 27010G16KT 12/M01 A2991 RMK A01 T01241006  RH  041%=      5-min Rain = 0
KARS 132020Z 27015KT 12/M01 A2991 RMK A01 T01241014  RH  038%=      5-min Rain = 0
KARS 132021Z 27012KT 12/M02 A2991 RMK A01 T01241017  RH  037%=      5-min Rain = 0
KARS 132022Z 27013KT 13/M02 A2991 RMK A01 T01251016  RH  038%=      5-min Rain = 0
KARS 132023Z 27013KT 13/M02 A2991 RMK A01 T01251016  RH  037%=      5-min Rain = 0
KARS 132024Z 27012KT 13/M01 A2991 RMK A01 T01251012  RH  039%=      5-min Rain = 0
KARS 132025Z 27012KT 13/M01 A2991 RMK A01 T01261014  RH  038%=      5-min Rain = 0
KARS 132026Z 27012KT 13/M01 A2991 RMK A01 T01261014  RH  038%=      5-min Rain = 0
KARS 132027Z 27011KT 13/M01 A2991 RMK A01 T01271014  RH  038%=      5-min Rain = 0
KARS 132028Z 27012KT 13/M01 A2991 RMK A01 T01281007  RH  039%=      5-min Rain = 0
KARS 132029Z 27012KT 13/M02 A2991 RMK A01 T01281022  RH  035%=      5-min Rain = 0
KARS 132030Z 28011KT 13/M02 A299 RMK A01 T01271020  RH  036%=      5-min Rain = 0
KARS 132031Z 27010KT 13/M02 A299 RMK A01 T01281019  RH  036%=      5-min Rain = 0
KARS 132032Z 28012KT 13/M01 A299 RMK A01 T01311014  RH  037%=      5-min Rain = 0
KARS 132033Z 28012KT 13/M02 A299 RMK A01 T01331017  RH  035%=      5-min Rain = 0
KARS 132034Z 28013KT 13/M02 A299 RMK A01 T01341018  RH  035%=      5-min Rain = 0
KARS 132035Z 27011KT 13/M02 A299 RMK A01 T01341015  RH  036%=      5-min Rain = 0
KARS 132036Z 27012KT 14/M01 A299 RMK A01 T01351014  RH  036%=      5-min Rain = 0
KARS 132037Z 28012KT 14/M02 A299 RMK A01 T01351017  RH  035%=      5-min Rain = 0
KARS 132038Z 27013KT 14/M02 A299 RMK A01 T01361017  RH  035%=      5-min Rain = 0
KARS 132039Z 28011KT 14/M02 A299 RMK A01 T01361017  RH  035%=      5-min Rain = 0
KARS 132040Z 28011KT 14/M02 A299 RMK A01 T01371018  RH  034%=      5-min Rain = 0
KARS 132041Z 26011KT 14/M02 A299 RMK A01 T01371015  RH  035%=      5-min Rain = 0
KARS 132042Z 26011G16KT 14/M01 A299 RMK A01 T01381008  RH  037%=      5-min Rain = 0
KARS 132043Z 27015KT 14/M02 A299 RMK A01 T01401019  RH  033%=      5-min Rain = 0
KARS 132044Z 28013KT 14/M02 A299 RMK A01 T01401024  RH  032%=      5-min Rain = 0
KARS 132045Z 28014KT 14/M03 A299 RMK A01 T01391030  RH  031%=      5-min Rain = 0
KARS 132046Z 29012KT 14/M03 A299 RMK A01 T01391031  RH  031%=      5-min Rain = 0
KARS 132047Z 29012KT 14/M03 A299 RMK A01 T01381028  RH  031%=      5-min Rain = 0
KARS 132048Z 28010G15KT 14/M01 A299 RMK A01 T01401013  RH  035%=      5-min Rain = 0
KARS 132049Z 28014KT 14/M02 A299 RMK A01 T01431018  RH  033%=      5-min Rain = 0
KARS 132050Z 28013KT 14/M03 A299 RMK A01 T01431025  RH  031%=      5-min Rain = 0
KARS 132051Z 28012KT 14/M02 A299 RMK A01 T01411024  RH  032%=      5-min Rain = 0
KARS 132052Z 29012KT 14/M02 A299 RMK A01 T01401021  RH  033%=      5-min Rain = 0
KARS 132053Z 29010KT 14/M02 A299 RMK A01 T01401022  RH  033%=      5-min Rain = 0
KARS 132054Z 29012KT 14/M02 A299 RMK A01 T01421018  RH  033%=      5-min Rain = 0
KARS 132055Z 29013KT 14/M02 A299 RMK A01 T01431022  RH  032%=      5-min Rain = 0
KARS 132056Z 28013KT 14/M02 A299 RMK A01 T01431020  RH  032%=      5-min Rain = 0
KARS 132057Z 28013KT 14/M02 A299 RMK A01 T01431022  RH  032%=      5-min Rain = 0
KARS 132058Z 28011KT 14/M02 A299 RMK A01 T01441021  RH  032%=      5-min Rain = 0
KARS 132059Z 28012KT 15/M01 A299 RMK A01 T01451013  RH  034%=      5-min Rain = 0
KARS 132100Z 27009KT 15/M02 A299 RMK A01 T01461018  RH  032%=      5-min Rain = 0
KARS 132101Z 26012KT 15/M01 A299 RMK A01 T01461008  RH  035%=      5-min Rain = 0
KARS 132102Z 26013KT 15/M01 A299 RMK A01 T01451008  RH  035%=      5-min Rain = 0
KARS 132103Z 26012KT 15/M01 A299 RMK A01 T01451006  RH  035%=      5-min Rain = 0
KARS 132104Z 26013KT 15/M01 A299 RMK A01 T01451008  RH  035%=      5-min Rain = 0
KARS 132105Z 27012KT 15/M02 A299 RMK A01 T01451015  RH  033%=      5-min Rain = 0
KARS 132106Z 27012KT 15/M01 A299 RMK A01 T01451014  RH  033%=      5-min Rain = 0
KARS 132107Z 27012KT 15/M00 A299 RMK A01 T01471004  RH  036%=      5-min Rain = 0
KARS 132108Z 27014KT 15/M02 A299 RMK A01 T01481017  RH  032%=      5-min Rain = 0
KARS 132109Z 27012KT 15/M01 A299 RMK A01 T01471013  RH  033%=      5-min Rain = 0
KARS 132110Z 27011KT 15/M01 A299 RMK A01 T01471010  RH  034%=      5-min Rain = 0
KARS 132111Z 29012KT 15/M01 A299 RMK A01 T01491011  RH  033%=      5-min Rain = 0
KARS 132112Z 29011KT 15/M02 A299 RMK A01 T01501018  RH  031%=      5-min Rain = 0
KARS 132113Z 27012KT 15/M01 A299 RMK A01 T01511011  RH  033%=      5-min Rain = 0
KARS 132114Z 27014KT 15/M01 A299 RMK A01 T01511008  RH  033%=      5-min Rain = 0
KARS 132115Z 27013KT 15/M01 A299 RMK A01 T01501007  RH  034%=      5-min Rain = 0
KARS 132116Z 27013KT 15/M00 A299 RMK A01 T01491003  RH  035%=      5-min Rain = 0
KARS 132117Z 27012KT 15/M00 A299 RMK A01 T01491001  RH  036%=      5-min Rain = 0
KARS 132118Z 27013KT 15/M01 A299 RMK A01 T01501006  RH  034%=      5-min Rain = 0
KARS 132119Z 27012KT 15/M01 A299 RMK A01 T01501006  RH  034%=      5-min Rain = 0
KARS 132120Z 27014KT 15/M01 A299 RMK A01 T01491011  RH  033%=      5-min Rain = 0
KARS 132121Z 27011KT 15/M01 A299 RMK A01 T01491008  RH  034%=      5-min Rain = 0
KARS 132122Z 27011KT 15/00 A299 RMK A01 T01500003  RH  037%=      5-min Rain = 0
KARS 132123Z 27012KT 15/M00 A299 RMK A01 T01511003  RH  035%=      5-min Rain = 0
KARS 132124Z 26011KT 15/M00 A299 RMK A01 T01491001  RH  036%=      5-min Rain = 0
KARS 132125Z 26012KT 15/00 A299 RMK A01 T01490004  RH  037%=      5-min Rain = 0
KARS 132126Z 27013G18KT 15/M00 A299 RMK A01 T01501004  RH  035%=      5-min Rain = 0
KARS 132127Z 28012G17KT 15/M01 A299 RMK A01 T01511006  RH  034%=      5-min Rain = 0
KARS 132128Z 27014KT 15/M01 A299 RMK A01 T01521010  RH  033%=      5-min Rain = 0
KARS 132129Z 27013KT 15/M01 A299 RMK A01 T01521013  RH  032%=      5-min Rain = 0
KARS 132130Z 26012KT 15/M01 A299 RMK A01 T01521008  RH  034%=      5-min Rain = 0
KARS 132131Z 26014KT 15/00 A299 RMK A01 T01510001  RH  036%=      5-min Rain = 0
KARS 132132Z 27014KT 15/M00 A299 RMK A01 T01511002  RH  035%=      5-min Rain = 0
KARS 132133Z 27012KT 15/M00 A299 RMK A01 T01501003  RH  035%=      5-min Rain = 0
KARS 132134Z 27013KT 15/M00 A299 RMK A01 T01501004  RH  035%=      5-min Rain = 0
KARS 132135Z 26013KT 15/M01 A299 RMK A01 T01491005  RH  035%=      5-min Rain = 0
KARS 132136Z 26012G17KT 15/00 A299 RMK A01 T01490003  RH  037%=      5-min Rain = 0
KARS 132137Z 26015KT 15/M00 A299 RMK A01 T01501001  RH  036%=      5-min Rain = 0
KARS 132138Z 26014KT 15/M00 A299 RMK A01 T01501002  RH  035%=      5-min Rain = 0
KARS 132139Z 27013KT 15/M00 A299 RMK A01 T01501003  RH  035%=      5-min Rain = 0
KARS 132140Z 27015KT 15/M00 A299 RMK A01 T01511003  RH  035%=      5-min Rain = 0
KARS 132141Z 27014KT 15/M00 A299 RMK A01 T01521002  RH  035%=      5-min Rain = 0
KARS 132142Z 27014KT 15/M01 A299 RMK A01 T01521010  RH  033%=      5-min Rain = 0
KARS 132143Z 27011KT 15/M01 A299 RMK A01 T01531008  RH  033%=      5-min Rain = 0
KARS 132144Z 28012KT 15/M00 A299 RMK A01 T01541004  RH  034%=      5-min Rain = 0
KARS 132145Z 27014KT 16/M01 A299 RMK A01 T01551005  RH  034%=      5-min Rain = 0
KARS 132146Z 28013KT 16/M01 A299 RMK A01 T01551006  RH  033%=      5-min Rain = 0
KARS 132147Z 27012KT 15/M01 A299 RMK A01 T01541005  RH  034%=      5-min Rain = 0
KARS 132148Z 27011KT 15/M01 A299 RMK A01 T01521005  RH  034%=      5-min Rain = 0
KARS 132149Z 27013KT 15/M00 A299 RMK A01 T01511002  RH  035%=      5-min Rain = 0
KARS 132150Z 27013KT 15/M01 A299 RMK A01 T01511008  RH  034%=      5-min Rain = 0
KARS 132151Z 27011KT 15/M00 A299 RMK A01 T01501004  RH  035%=      5-min Rain = 0
KARS 132152Z 27011KT 15/M00 A299 RMK A01 T01511001  RH  036%=      5-min Rain = 0
KARS 132153Z 27015KT 15/M01 A2989 RMK A01 T01511010  RH  033%=      5-min Rain = 0
KARS 132154Z 27014KT 15/M01 A2989 RMK A01 T01511013  RH  032%=      5-min Rain = 0
KARS 132155Z 28012KT 15/M01 A2989 RMK A01 T01511010  RH  033%=      5-min Rain = 0
KARS 132156Z 27014KT 15/M01 A2989 RMK A01 T01511011  RH  033%=      5-min Rain = 0
KARS 132157Z 27013KT 15/M01 A2989 RMK A01 T01511014  RH  032%=      5-min Rain = 0
KARS 132158Z 28011KT 15/M01 A2989 RMK A01 T01511013  RH  032%=      5-min Rain = 0
KARS 132159Z 28013KT 15/M01 A2989 RMK A01 T01521011  RH  033%=      5-min Rain = 0
KARS 132200Z 28012KT 15/M01 A2989 RMK A01 T01521011  RH  033%=      5-min Rain = 0
KARS 132201Z 28013KT 15/M01 A2989 RMK A01 T01521013  RH  032%=      5-min Rain = 0
KARS 132202Z 28012KT 15/M01 A2989 RMK A01 T01521012  RH  033%=      5-min Rain = 0
KARS 132203Z 27011KT 15/M01 A2989 RMK A01 T01511010  RH  033%=      5-min Rain = 0
KARS 132204Z 27011KT 15/M01 A2989 RMK A01 T01511008  RH  034%=      5-min Rain = 0
KARS 132205Z 27012KT 15/M01 A2989 RMK A01 T01521006  RH  034%=      5-min Rain = 0
KARS 132206Z 28011KT 15/M01 A2989 RMK A01 T01521007  RH  034%=      5-min Rain = 0
KARS 132207Z 28012KT 15/M01 A2989 RMK A01 T01531010  RH  033%=      5-min Rain = 0
KARS 132208Z 28010KT 15/M01 A2989 RMK A01 T01541010  RH  033%=      5-min Rain = 0
KARS 132209Z 28009KT 15/M01 A2989 RMK A01 T01541006  RH  033%=      5-min Rain = 0
KARS 132210Z 28009KT 15/M00 A2989 RMK A01 T01541004  RH  034%=      5-min Rain = 0
KARS 132211Z 28011KT 15/M01 A2989 RMK A01 T01541007  RH  033%=      5-min Rain = 0
KARS 132212Z 28010KT 16/M01 A2989 RMK A01 T01551012  RH  032%=      5-min Rain = 0
KARS 132213Z 28010KT 16/M01 A2989 RMK A01 T01551010  RH  032%=      5-min Rain = 0
KARS 132214Z 28009KT 16/M01 A2989 RMK A01 T01551010  RH  032%=      5-min Rain = 0
KARS 132215Z 29010KT 16/M01 A2989 RMK A01 T01551009  RH  033%=      5-min Rain = 0
KARS 132216Z 29011KT 15/M02 A2989 RMK A01 T01541018  RH  031%=      5-min Rain = 0
KARS 132217Z 29012KT 15/M02 A2989 RMK A01 T01541017  RH  031%=      5-min Rain = 0
KARS 132218Z 29012KT 15/M02 A2989 RMK A01 T01531024  RH  030%=      5-min Rain = 0
KARS 132219Z 29010KT 15/M02 A2989 RMK A01 T01531023  RH  030%=      5-min Rain = 0
KARS 132220Z 28010KT 15/M01 A2989 RMK A01 T01531014  RH  032%=      5-min Rain = 0
KARS 132221Z 28011KT 15/M02 A2989 RMK A01 T01531018  RH  031%=      5-min Rain = 0
KARS 132222Z 28012KT 15/M02 A2989 RMK A01 T01531018  RH  031%=      5-min Rain = 0
KARS 132223Z 29010KT 15/M02 A2989 RMK A01 T01521017  RH  031%=      5-min Rain = 0
KARS 132224Z 28010KT 15/M02 A2989 RMK A01 T01521017  RH  031%=      5-min Rain = 0
KARS 132225Z 29008KT 15/M02 A2989 RMK A01 T01511015  RH  032%=      5-min Rain = 0
KARS 132226Z 28008KT 15/M01 A2989 RMK A01 T01511011  RH  033%=      5-min Rain = 0
KARS 132227Z 28010KT 15/M02 A2989 RMK A01 T01501015  RH  032%=      5-min Rain = 0
KARS 132228Z 28008KT 15/M01 A2989 RMK A01 T01491011  RH  033%=      5-min Rain = 0
KARS 132229Z 28009KT 15/M01 A2989 RMK A01 T01481011  RH  033%=      5-min Rain = 0
KARS 132230Z 29010KT 15/M02 A2989 RMK A01 T01481015  RH  033%=      5-min Rain = 0
KARS 132231Z 29010KT 15/M02 A2989 RMK A01 T01481015  RH  033%=      5-min Rain = 0
KARS 132232Z 29009KT 15/M02 A2989 RMK A01 T01481015  RH  032%=      5-min Rain = 0
KARS 132233Z 29008KT 15/M01 A2989 RMK A01 T01491012  RH  033%=      5-min Rain = 0
KARS 132234Z 28007KT 15/M01 A2989 RMK A01 T01491010  RH  034%=      5-min Rain = 0
KARS 132235Z 29007KT 15/M01 A2989 RMK A01 T01481008  RH  034%=      5-min Rain = 0
KARS 132236Z 29007KT 15/M01 A2989 RMK A01 T01481006  RH  035%=      5-min Rain = 0
KARS 132237Z 29007KT 15/M01 A2989 RMK A01 T01481013  RH  033%=      5-min Rain = 0
KARS 132238Z 28006KT 15/M01 A2989 RMK A01 T01481009  RH  034%=      5-min Rain = 0
KARS 132239Z 28007KT 15/M01 A2989 RMK A01 T01471008  RH  034%=      5-min Rain = 0
KARS 132240Z 28007KT 15/M01 A2989 RMK A01 T01471010  RH  034%=      5-min Rain = 0
KARS 132241Z 28007KT 15/M01 A2989 RMK A01 T01461010  RH  034%=      5-min Rain = 0
KARS 132242Z 28008KT 15/M02 A2989 RMK A01 T01461015  RH  033%=      5-min Rain = 0
KARS 132243Z 27007KT 15/M01 A2989 RMK A01 T01461013  RH  033%=      5-min Rain = 0
KARS 132244Z 27007KT 15/M01 A2989 RMK A01 T01471009  RH  034%=      5-min Rain = 0
KARS 132245Z 27007KT 15/M01 A2989 RMK A01 T01471010  RH  034%=      5-min Rain = 0
KARS 132246Z 27007KT 15/M01 A2989 RMK A01 T01481008  RH  034%=      5-min Rain = 0
KARS 132247Z 27006KT 15/M00 A2989 RMK A01 T01481002  RH  036%=      5-min Rain = 0
KARS 132248Z 27007KT 15/M00 A2989 RMK A01 T01481003  RH  035%=      5-min Rain = 0
KARS 132249Z 27007KT 15/M00 A2989 RMK A01 T01481003  RH  036%=      5-min Rain = 0
KARS 132250Z 27006KT 15/00 A2989 RMK A01 T01480001  RH  036%=      5-min Rain = 0
KARS 132251Z 27006KT 15/M00 A2989 RMK A01 T01481001  RH  036%=      5-min Rain = 0
KARS 132252Z 27006KT 15/00 A2989 RMK A01 T01480001  RH  037%=      5-min Rain = 0
KARS 132253Z 27006KT 15/00 A2989 RMK A01 T014800-0  RH  036%=      5-min Rain = 0
KARS 132254Z 27006KT 15/M00 A2989 RMK A01 T01481003  RH  035%=      5-min Rain = 0
KARS 132255Z 27006KT 15/M01 A2988 RMK A01 T01491006  RH  034%=      5-min Rain = 0
KARS 132256Z 26006KT 15/M00 A2988 RMK A01 T01501004  RH  035%=      5-min Rain = 0
KARS 132257Z 26006KT 15/M00 A2989 RMK A01 T01501001  RH  036%=      5-min Rain = 0
KARS 132258Z 26006KT 15/00 A2989 RMK A01 T015000-0  RH  036%=      5-min Rain = 0
KARS 132259Z 26006KT 15/00 A2989 RMK A01 T01500002  RH  036%=      5-min Rain = 0
KARS 132300Z 26006KT 15/00 A2989 RMK A01 T01490001  RH  036%=      5-min Rain = 0
KARS 132301Z 25005KT 15/01 A2989 RMK A01 T01490005  RH  037%=      5-min Rain = 0
KARS 132302Z 25005KT 15/01 A2989 RMK A01 T01480009  RH  039%=      5-min Rain = 0
KARS 132303Z 25005KT 15/01 A2989 RMK A01 T01470009  RH  039%=      5-min Rain = 0
KARS 132304Z 25005KT 15/01 A2989 RMK A01 T01460009  RH  039%=      5-min Rain = 0
KARS 132305Z 25005KT 15/01 A2989 RMK A01 T01460010  RH  040%=      5-min Rain = 0
KARS 132306Z 25006KT 15/01 A2989 RMK A01 T01450008  RH  039%=      5-min Rain = 0
KARS 132307Z 25005KT 14/01 A2989 RMK A01 T01440008  RH  040%=      5-min Rain = 0
KARS 132308Z 25005KT 14/01 A2988 RMK A01 T01420008  RH  040%=      5-min Rain = 0
KARS 132309Z 25005KT 14/01 A2988 RMK A01 T01410009  RH  041%=      5-min Rain = 0
KARS 132310Z 25005KT 14/01 A2988 RMK A01 T01390010  RH  041%=      5-min Rain = 0
KARS 132311Z 24005KT 14/01 A2988 RMK A01 T01380010  RH  042%=      5-min Rain = 0
KARS 132312Z 24005KT 14/01 A2988 RMK A01 T01360010  RH  042%=      5-min Rain = 0
KARS 132313Z 24005KT 14/01 A2988 RMK A01 T01350014  RH  043%=      5-min Rain = 0
KARS 132314Z 24005KT 13/02 A2988 RMK A01 T01340015  RH  044%=      5-min Rain = 0
KARS 132315Z 24005KT 13/02 A2988 RMK A01 T01340015  RH  044%=      5-min Rain = 0
KARS 132316Z 24005KT 13/02 A2988 RMK A01 T01330018  RH  045%=      5-min Rain = 0
KARS 132317Z 24005KT 13/02 A2988 RMK A01 T01320018  RH  046%=      5-min Rain = 0
KARS 132318Z 24006KT 13/02 A2988 RMK A01 T01310019  RH  046%=      5-min Rain = 0
KARS 132319Z 24006KT 13/02 A2988 RMK A01 T01300021  RH  047%=      5-min Rain = 0
KARS 132320Z 24006KT 13/02 A2988 RMK A01 T01280020  RH  048%=      5-min Rain = 0
KARS 132321Z 24006KT 13/02 A2988 RMK A01 T01270021  RH  048%=      5-min Rain = 0
KARS 132322Z 24006KT 13/02 A2988 RMK A01 T01260021  RH  049%=      5-min Rain = 0
KARS 132323Z 24006KT 13/02 A2988 RMK A01 T01250021  RH  049%=      5-min Rain = 0
KARS 132324Z 24006KT 13/02 A2988 RMK A01 T01250020  RH  049%=      5-min Rain = 0
KARS 132325Z 24006KT 13/02 A2988 RMK A01 T01250020  RH  049%=      5-min Rain = 0
KARS 132326Z 24006KT 12/02 A2988 RMK A01 T01240019  RH  049%=      5-min Rain = 0
KARS 132327Z 24007KT 12/02 A2988 RMK A01 T01230020  RH  049%=      5-min Rain = 0
KARS 132328Z 24007KT 12/02 A2988 RMK A01 T01220020  RH  050%=      5-min Rain = 0
KARS 132329Z 24006KT 12/02 A2988 RMK A01 T01210020  RH  050%=      5-min Rain = 0
KARS 132330Z 24006KT 12/02 A2988 RMK A01 T01200019  RH  050%=      5-min Rain = 0
KARS 132331Z 24006KT 12/02 A2988 RMK A01 T01200019  RH  050%=      5-min Rain = 0
KARS 132332Z 24006KT 12/02 A2988 RMK A01 T01190019  RH  050%=      5-min Rain = 0
KARS 132333Z 23006KT 12/02 A2988 RMK A01 T01180019  RH  051%=      5-min Rain = 0
KARS 132334Z 23006KT 12/02 A2988 RMK A01 T01170020  RH  051%=      5-min Rain = 0
KARS 132335Z 23007KT 12/02 A2988 RMK A01 T01160021  RH  052%=      5-min Rain = 0
KARS 132336Z 22007KT 12/02 A2988 RMK A01 T01150022  RH  053%=      5-min Rain = 0
KARS 132337Z 22007KT 11/02 A2988 RMK A01 T01130022  RH  053%=      5-min Rain = 0
KARS 132338Z 21006KT 11/02 A2988 RMK A01 T01110021  RH  054%=      5-min Rain = 0
KARS 132339Z 22007KT 11/02 A2988 RMK A01 T01090019  RH  054%=      5-min Rain = 0
KARS 132340Z 22007KT 11/02 A2988 RMK A01 T01080018  RH  054%=      5-min Rain = 0
KARS 132341Z 22008KT 11/02 A2988 RMK A01 T01080018  RH  054%=      5-min Rain = 0
KARS 132342Z 21008KT 11/02 A2988 RMK A01 T01060018  RH  054%=      5-min Rain = 0
KARS 132343Z 21008KT 11/02 A2988 RMK A01 T01050018  RH  055%=      5-min Rain = 0
KARS 132344Z 21008KT 10/02 A2988 RMK A01 T01040020  RH  056%=      5-min Rain = 0
KARS 132345Z 22009KT 10/02 A2988 RMK A01 T01040022  RH  057%=      5-min Rain = 0
KARS 132346Z 22009KT 10/02 A2988 RMK A01 T01030024  RH  058%=      5-min Rain = 0
KARS 132347Z 22009KT 10/03 A2988 RMK A01 T01020027  RH  060%=      5-min Rain = 0
KARS 132348Z 22009KT 10/03 A2988 RMK A01 T01010029  RH  061%=      5-min Rain = 0
KARS 132349Z 23009KT 10/03 A2988 RMK A01 T01010030  RH  062%=      5-min Rain = 0
KARS 132350Z 23009KT 10/03 A2988 RMK A01 T01010031  RH  062%=      5-min Rain = 0
KARS 132351Z 23009KT 10/03 A2988 RMK A01 T01010032  RH  062%=      5-min Rain = 0
KARS 132352Z 23009KT 10/03 A2988 RMK A01 T01010033  RH  063%=      5-min Rain = 0
KARS 132353Z 23009KT 10/03 A2988 RMK A01 T01010033  RH  063%=      5-min Rain = 0
KARS 132354Z 23009KT 10/03 A2988 RMK A01 T01010033  RH  063%=      5-min Rain = 0
KARS 132355Z 23009KT 10/03 A2988 RMK A01 T01010033  RH  063%=      5-min Rain = 0
KARS 132356Z 23009KT 10/03 A2988 RMK A01 T00990033  RH  063%=      5-min Rain = 0
KARS 132357Z 23009KT 10/03 A2988 RMK A01 T00980033  RH  064%=      5-min Rain = 0
KARS 132358Z 24009KT 10/03 A2988 RMK A01 T00970033  RH  064%=      5-min Rain = 0
KARS 132359Z 24009KT 10/03 A2988 RMK A01 T00960032  RH  065%=      5-min Rain = 0
KARS 140000Z 24009KT 09/03 A2988 RMK A01 T00940032  RH  065%=      5-min Rain = 0
KARS 140001Z 24009KT 09/03 A2988 RMK A01 T00930032  RH  066%=      5-min Rain = 0
KARS 140002Z 24009KT 09/03 A2988 RMK A01 T00930032  RH  066%=      5-min Rain = 0
KARS 140003Z 24009KT 09/03 A2988 RMK A01 T00920032  RH  066%=      5-min Rain = 0
KARS 140004Z 24009KT 09/03 A2988 RMK A01 T00920032  RH  066%=      5-min Rain = 0
KARS 140005Z 24009KT 09/03 A2989 RMK A01 T00910032  RH  067%=      5-min Rain = 0
KARS 140006Z 24008KT 09/03 A2989 RMK A01 T00900033  RH  067%=      5-min Rain = 0
KARS 140007Z 24008KT 09/03 A2989 RMK A01 T00890033  RH  068%=      5-min Rain = 0
KARS 140008Z 24008KT 09/03 A2989 RMK A01 T00870032  RH  068%=      5-min Rain = 0
KARS 140009Z 24007KT 09/03 A2989 RMK A01 T00860032  RH  069%=      5-min Rain = 0
KARS 140010Z 24007KT 08/03 A2989 RMK A01 T00840032  RH  070%=      5-min Rain = 0
KARS 140011Z 24006KT 08/03 A2989 RMK A01 T00830032  RH  070%=      5-min Rain = 0
KARS 140012Z 24006KT 08/03 A2989 RMK A01 T00820031  RH  070%=      5-min Rain = 0
KARS 140013Z 24006KT 08/03 A2989 RMK A01 T00800031  RH  071%=      5-min Rain = 0
KARS 140014Z 24005KT 08/03 A2989 RMK A01 T00790031  RH  072%=      5-min Rain = 0
KARS 140015Z 24005KT 08/03 A299 RMK A01 T00780031  RH  072%=      5-min Rain = 0
KARS 140016Z 24006KT 08/03 A299 RMK A01 T00770031  RH  072%=      5-min Rain = 0
KARS 140017Z 24006KT 08/03 A299 RMK A01 T00760031  RH  073%=      5-min Rain = 0
KARS 140018Z 24005KT 08/03 A299 RMK A01 T00760031  RH  073%=      5-min Rain = 0
KARS 140019Z 24005KT 07/03 A299 RMK A01 T00740030  RH  073%=      5-min Rain = 0
KARS 140020Z 25006KT 07/03 A299 RMK A01 T00730030  RH  074%=      5-min Rain = 0
KARS 140021Z 25006KT 07/03 A299 RMK A01 T00710029  RH  075%=      5-min Rain = 0
KARS 140022Z 25006KT 07/03 A299 RMK A01 T00700030  RH  076%=      5-min Rain = 0
KARS 140023Z 25006KT 07/03 A299 RMK A01 T00700031  RH  076%=      5-min Rain = 0
KARS 140024Z 24006KT 07/03 A299 RMK A01 T00690030  RH  077%=      5-min Rain = 0
KARS 140025Z 24005KT 07/03 A299 RMK A01 T00670030  RH  077%=      5-min Rain = 0
KARS 140026Z 24006KT 07/03 A299 RMK A01 T00660030  RH  077%=      5-min Rain = 0
KARS 140027Z 24006KT 07/03 A299 RMK A01 T00650029  RH  078%=      5-min Rain = 0
KARS 140028Z 25006KT 07/03 A299 RMK A01 T00650029  RH  078%=      5-min Rain = 0
KARS 140029Z 25007KT 06/03 A299 RMK A01 T00640029  RH  078%=      5-min Rain = 0
KARS 140030Z 24006KT 06/03 A299 RMK A01 T00640028  RH  078%=      5-min Rain = 0
KARS 140031Z 24007KT 06/03 A299 RMK A01 T00630028  RH  078%=      5-min Rain = 0
KARS 140032Z 24006KT 06/03 A299 RMK A01 T00630028  RH  078%=      5-min Rain = 0
KARS 140033Z 24006KT 06/03 A299 RMK A01 T00620027  RH  078%=      5-min Rain = 0
KARS 140034Z 25005KT 06/03 A299 RMK A01 T00610027  RH  079%=      5-min Rain = 0
KARS 140035Z 25006KT 06/03 A299 RMK A01 T00600027  RH  079%=      5-min Rain = 0
KARS 140036Z 26006KT 06/03 A299 RMK A01 T00590026  RH  080%=      5-min Rain = 0
KARS 140037Z 26006KT 06/03 A299 RMK A01 T00580026  RH  080%=      5-min Rain = 0
KARS 140038Z 26006KT 06/03 A299 RMK A01 T00580026  RH  080%=      5-min Rain = 0
KARS 140039Z 26006KT 06/03 A299 RMK A01 T00580026  RH  080%=      5-min Rain = 0
KARS 140040Z 26007KT 06/03 A299 RMK A01 T00570026  RH  080%=      5-min Rain = 0
KARS 140041Z 26007KT 06/03 A299 RMK A01 T00560025  RH  081%=      5-min Rain = 0
KARS 140042Z 26007KT 06/03 A299 RMK A01 T00550025  RH  081%=      5-min Rain = 0
KARS 140043Z 26007KT 05/02 A299 RMK A01 T00540024  RH  081%=      5-min Rain = 0
KARS 140044Z 26008KT 05/02 A299 RMK A01 T00530024  RH  082%=      5-min Rain = 0
KARS 140045Z 26008KT 05/02 A299 RMK A01 T00520024  RH  082%=      5-min Rain = 0
KARS 140046Z 26008KT 05/02 A299 RMK A01 T00510023  RH  082%=      5-min Rain = 0
KARS 140047Z 26008KT 05/02 A299 RMK A01 T00500023  RH  083%=      5-min Rain = 0
KARS 140048Z 26008KT 05/02 A299 RMK A01 T00490022  RH  083%=      5-min Rain = 0
KARS 140049Z 26008KT 05/02 A299 RMK A01 T00480023  RH  083%=      5-min Rain = 0
KARS 140050Z 26008KT 05/02 A299 RMK A01 T00480023  RH  084%=      5-min Rain = 0
KARS 140051Z 26008KT 05/02 A299 RMK A01 T00480022  RH  083%=      5-min Rain = 0
KARS 140052Z 26008KT 05/02 A299 RMK A01 T00480022  RH  083%=      5-min Rain = 0
KARS 140053Z 25008KT 05/02 A299 RMK A01 T00490023  RH  083%=      5-min Rain = 0
KARS 140054Z 25008KT 05/02 A2989 RMK A01 T00500023  RH  083%=      5-min Rain = 0
KARS 140055Z 25008KT 05/02 A2989 RMK A01 T00510024  RH  083%=      5-min Rain = 0
KARS 140056Z 25008KT 05/02 A2989 RMK A01 T00520024  RH  082%=      5-min Rain = 0
KARS 140057Z 25008KT 05/02 A2989 RMK A01 T00520024  RH  082%=      5-min Rain = 0
KARS 140058Z 25008KT 05/02 A2989 RMK A01 T00520023  RH  082%=      5-min Rain = 0
KARS 140059Z 25007KT 05/02 A2989 RMK A01 T00520023  RH  082%=      5-min Rain = 0
KARS 140100Z 25007KT 05/02 A2989 RMK A01 T00520024  RH  082%=      5-min Rain = 0
KARS 140101Z 25007KT 05/02 A2989 RMK A01 T00530024  RH  081%=      5-min Rain = 0
KARS 140102Z 25007KT 05/02 A2989 RMK A01 T00530024  RH  081%=      5-min Rain = 0
KARS 140103Z 25007KT 05/02 A2989 RMK A01 T00530024  RH  081%=      5-min Rain = 0
KARS 140104Z 25007KT 05/02 A2989 RMK A01 T00530024  RH  081%=      5-min Rain = 0
KARS 140105Z 25006KT 05/02 A2989 RMK A01 T00540023  RH  081%=      5-min Rain = 0
KARS 140106Z 25006KT 05/02 A2989 RMK A01 T00540023  RH  081%=      5-min Rain = 0
KARS 140107Z 25006KT 05/02 A2989 RMK A01 T00530023  RH  081%=      5-min Rain = 0
KARS 140108Z 25007KT 05/02 A2989 RMK A01 T00530023  RH  081%=      5-min Rain = 0
KARS 140109Z 25007KT 05/02 A2989 RMK A01 T00530023  RH  081%=      5-min Rain = 0
KARS 140110Z 25008KT 05/02 A2989 RMK A01 T00520022  RH  081%=      5-min Rain = 0
KARS 140111Z 25008KT 05/02 A2989 RMK A01 T00510023  RH  082%=      5-min Rain = 0
KARS 140112Z 25008KT 05/02 A2989 RMK A01 T00520023  RH  082%=      5-min Rain = 0
KARS 140113Z 25008KT 05/02 A2989 RMK A01 T00530023  RH  081%=      5-min Rain = 0
KARS 140114Z 25009KT 05/02 A2989 RMK A01 T00540024  RH  081%=      5-min Rain = 0
KARS 140115Z 24010KT 06/02 A2989 RMK A01 T00550024  RH  081%=      5-min Rain = 0
KARS 140116Z 24009KT 06/03 A2988 RMK A01 T00570025  RH  080%=      5-min Rain = 0
KARS 140117Z 24009KT 06/03 A2988 RMK A01 T00600026  RH  079%=      5-min Rain = 0
KARS 140118Z 24009KT 06/03 A2988 RMK A01 T00610025  RH  078%=      5-min Rain = 0
KARS 140119Z 24009KT 06/03 A2988 RMK A01 T00610025  RH  078%=      5-min Rain = 0
KARS 140120Z 23009KT 06/02 A2988 RMK A01 T00600024  RH  078%=      5-min Rain = 0
KARS 140121Z 23008KT 06/02 A2988 RMK A01 T00580023  RH  078%=      5-min Rain = 0
KARS 140122Z 23009KT 06/02 A2988 RMK A01 T00550022  RH  079%=      5-min Rain = 0
KARS 140123Z 23009KT 05/02 A2988 RMK A01 T00530022  RH  080%=      5-min Rain = 0
KARS 140124Z 24008KT 05/02 A2988 RMK A01 T00520021  RH  081%=      5-min Rain = 0
KARS 140125Z 24008KT 05/02 A2988 RMK A01 T00510021  RH  081%=      5-min Rain = 0
KARS 140126Z 24008KT 05/02 A2988 RMK A01 T00510021  RH  081%=      5-min Rain = 0
KARS 140127Z 24008KT 05/02 A2988 RMK A01 T00500021  RH  081%=      5-min Rain = 0
KARS 140128Z 24008KT 05/02 A2988 RMK A01 T00500021  RH  081%=      5-min Rain = 0
KARS 140129Z 23008KT 05/02 A2988 RMK A01 T00500021  RH  081%=      5-min Rain = 0
KARS 140130Z 23008KT 05/02 A2988 RMK A01 T00490020  RH  081%=      5-min Rain = 0
KARS 140131Z 24008KT 05/02 A2988 RMK A01 T00480019  RH  082%=      5-min Rain = 0
KARS 140132Z 24008KT 05/02 A2988 RMK A01 T00470019  RH  082%=      5-min Rain = 0
KARS 140133Z 24008KT 05/02 A2988 RMK A01 T00460019  RH  083%=      5-min Rain = 0
KARS 140134Z 24007KT 05/02 A2988 RMK A01 T00460019  RH  083%=      5-min Rain = 0
KARS 140135Z 23007KT 05/02 A2988 RMK A01 T00460019  RH  083%=      5-min Rain = 0
KARS 140136Z 23007KT 05/02 A2988 RMK A01 T00460019  RH  083%=      5-min Rain = 0
KARS 140137Z 23007KT 05/02 A2988 RMK A01 T00460019  RH  082%=      5-min Rain = 0
KARS 140138Z 22009KT 05/02 A2989 RMK A01 T00460018  RH  083%=      5-min Rain = 0
KARS 140139Z 23009KT 05/02 A2989 RMK A01 T00450019  RH  083%=      5-min Rain = 0
KARS 140140Z 24008KT 05/02 A2988 RMK A01 T00450018  RH  083%=      5-min Rain = 0
KARS 140141Z 24008KT 05/02 A2988 RMK A01 T00460018  RH  082%=      5-min Rain = 0
KARS 140142Z 24008KT 05/02 A2988 RMK A01 T00460018  RH  082%=      5-min Rain = 0
KARS 140143Z 24008KT 05/02 A2988 RMK A01 T00470018  RH  082%=      5-min Rain = 0
KARS 140144Z 24007KT 05/02 A2988 RMK A01 T00470018  RH  081%=      5-min Rain = 0
KARS 140145Z 24007KT 05/02 A2988 RMK A01 T00460017  RH  081%=      5-min Rain = 0
KARS 140146Z 24007KT 05/02 A2988 RMK A01 T00460017  RH  082%=      5-min Rain = 0
KARS 140147Z 24006KT 05/02 A2988 RMK A01 T00450016  RH  082%=      5-min Rain = 0
KARS 140148Z 23006KT 04/02 A2988 RMK A01 T00440016  RH  082%=      5-min Rain = 0
KARS 140149Z 23006KT 04/02 A2988 RMK A01 T00430015  RH  082%=      5-min Rain = 0
KARS 140150Z 22006KT 04/02 A2988 RMK A01 T00420015  RH  083%=      5-min Rain = 0
KARS 140151Z 23006KT 04/01 A2988 RMK A01 T00410014  RH  083%=      5-min Rain = 0
KARS 140152Z 23007KT 04/01 A2988 RMK A01 T00400014  RH  083%=      5-min Rain = 0
KARS 140153Z 23008KT 04/02 A2988 RMK A01 T00390015  RH  084%=      5-min Rain = 0
KARS 140154Z 22008KT 04/02 A2988 RMK A01 T00390015  RH  084%=      5-min Rain = 0
KARS 140155Z 22009KT 04/02 A2988 RMK A01 T00390015  RH  085%=      5-min Rain = 0
KARS 140156Z 23009KT 04/02 A2987 RMK A01 T00400016  RH  085%=      5-min Rain = 0
KARS 140157Z 23009KT 04/02 A2987 RMK A01 T00400017  RH  085%=      5-min Rain = 0
KARS 140158Z 23009KT 04/02 A2987 RMK A01 T00410017  RH  084%=      5-min Rain = 0
KARS 140159Z 23009KT 04/02 A2987 RMK A01 T00410017  RH  084%=      5-min Rain = 0
KARS 140200Z 22009KT 04/02 A2987 RMK A01 T00420016  RH  084%=      5-min Rain = 0
KARS 140201Z 23008KT 04/02 A2987 RMK A01 T00410016  RH  084%=      5-min Rain = 0
KARS 140202Z 23008KT 04/02 A2987 RMK A01 T00400015  RH  084%=      5-min Rain = 0
KARS 140203Z 24007KT 04/02 A2987 RMK A01 T00390015  RH  085%=      5-min Rain = 0
KARS 140204Z 24008KT 04/02 A2987 RMK A01 T00380015  RH  085%=      5-min Rain = 0
KARS 140205Z 24008KT 04/02 A2987 RMK A01 T00380015  RH  085%=      5-min Rain = 0
KARS 140206Z 23008KT 04/02 A2988 RMK A01 T00380015  RH  085%=      5-min Rain = 0
KARS 140207Z 23009KT 04/02 A2987 RMK A01 T00380015  RH  085%=      5-min Rain = 0
KARS 140208Z 23009KT 04/01 A2987 RMK A01 T00370014  RH  085%=      5-min Rain = 0
KARS 140209Z 23009KT 04/02 A2987 RMK A01 T00370015  RH  085%=      5-min Rain = 0
KARS 140210Z 23009KT 04/02 A2987 RMK A01 T00370015  RH  085%=      5-min Rain = 0
KARS 140211Z 22010KT 04/02 A2987 RMK A01 T00370015  RH  085%=      5-min Rain = 0
KARS 140212Z 22011KT 04/01 A2987 RMK A01 T00370014  RH  085%=      5-min Rain = 0
KARS 140213Z 23009KT 04/01 A2987 RMK A01 T00370014  RH  085%=      5-min Rain = 0
KARS 140214Z 23010KT 04/01 A2987 RMK A01 T00370014  RH  085%=      5-min Rain = 0
KARS 140215Z 23010KT 04/01 A2987 RMK A01 T00370014  RH  085%=      5-min Rain = 0
KARS 140216Z 23010KT 04/01 A2987 RMK A01 T00360014  RH  085%=      5-min Rain = 0
KARS 140217Z 23011KT 04/01 A2987 RMK A01 T00360013  RH  085%=      5-min Rain = 0
KARS 140218Z 23011KT 04/01 A2987 RMK A01 T00360014  RH  085%=      5-min Rain = 0
KARS 140219Z 23011KT 04/01 A2987 RMK A01 T00360013  RH  085%=      5-min Rain = 0
KARS 140220Z 23010KT 04/01 A2987 RMK A01 T00370013  RH  085%=      5-min Rain = 0
KARS 140221Z 24010KT 04/01 A2987 RMK A01 T00370013  RH  085%=      5-min Rain = 0
KARS 140222Z 24010KT 04/01 A2987 RMK A01 T00370013  RH  085%=      5-min Rain = 0
KARS 140223Z 24010KT 04/01 A2987 RMK A01 T00370013  RH  085%=      5-min Rain = 0
KARS 140224Z 24011KT 04/01 A2987 RMK A01 T00370013  RH  084%=      5-min Rain = 0
KARS 140225Z 25011KT 04/01 A2987 RMK A01 T00360012  RH  084%=      5-min Rain = 0
KARS 140226Z 25010KT 04/01 A2987 RMK A01 T00360012  RH  085%=      5-min Rain = 0
KARS 140227Z 25010KT 04/01 A2987 RMK A01 T00370012  RH  084%=      5-min Rain = 0
KARS 140228Z 25010KT 04/01 A2987 RMK A01 T00380012  RH  083%=      5-min Rain = 0
KARS 140229Z 24010KT 04/01 A2987 RMK A01 T00380012  RH  083%=      5-min Rain = 0
KARS 140230Z 24010KT 04/01 A2987 RMK A01 T00380012  RH  083%=      5-min Rain = 0
KARS 140231Z 24009KT 04/01 A2987 RMK A01 T00380012  RH  083%=      5-min Rain = 0
KARS 140232Z 24009KT 04/01 A2987 RMK A01 T00380011  RH  083%=      5-min Rain = 0
KARS 140233Z 25009KT 04/01 A2987 RMK A01 T00380011  RH  083%=      5-min Rain = 0
KARS 140234Z 25009KT 04/01 A2987 RMK A01 T00380011  RH  083%=      5-min Rain = 0
KARS 140235Z 25010KT 04/01 A2987 RMK A01 T00380011  RH  082%=      5-min Rain = 0
KARS 140236Z 25010KT 04/01 A2987 RMK A01 T00390011  RH  082%=      5-min Rain = 0
KARS 140237Z 25010KT 04/01 A2987 RMK A01 T00390011  RH  082%=      5-min Rain = 0
KARS 140238Z 25010KT 04/01 A2987 RMK A01 T00390011  RH  082%=      5-min Rain = 0
KARS 140239Z 25010KT 04/01 A2987 RMK A01 T00390011  RH  082%=      5-min Rain = 0
KARS 140240Z 25010KT 04/01 A2987 RMK A01 T00400011  RH  082%=      5-min Rain = 0
KARS 140241Z 25009KT 04/01 A2987 RMK A01 T00400011  RH  081%=      5-min Rain = 0
KARS 140242Z 24010KT 04/01 A2987 RMK A01 T00400011  RH  081%=      5-min Rain = 0
KARS 140243Z 24010KT 04/01 A2987 RMK A01 T00390011  RH  082%=      5-min Rain = 0
KARS 140244Z 24010KT 04/01 A2987 RMK A01 T00390011  RH  082%=      5-min Rain = 0
KARS 140245Z 24011KT 04/01 A2987 RMK A01 T00390011  RH  082%=      5-min Rain = 0
KARS 140246Z 24011KT 04/01 A2987 RMK A01 T00410011  RH  081%=      5-min Rain = 0
KARS 140247Z 25010KT 04/01 A2986 RMK A01 T00420011  RH  080%=      5-min Rain = 0
KARS 140248Z 25010KT 04/01 A2986 RMK A01 T00430010  RH  079%=      5-min Rain = 0
KARS 140249Z 25010KT 04/01 A2986 RMK A01 T00440010  RH  079%=      5-min Rain = 0
KARS 140250Z 25009KT 04/01 A2986 RMK A01 T00440009  RH  078%=      5-min Rain = 0
KARS 140251Z 25009KT 04/01 A2986 RMK A01 T00440009  RH  078%=      5-min Rain = 0
KARS 140252Z 25009KT 04/01 A2986 RMK A01 T00430009  RH  078%=      5-min Rain = 0
KARS 140253Z 25009KT 04/01 A2986 RMK A01 T00430009  RH  079%=      5-min Rain = 0
KARS 140254Z 24009KT 04/01 A2986 RMK A01 T00420009  RH  079%=      5-min Rain = 0
KARS 140255Z 24009KT 04/01 A2986 RMK A01 T00410009  RH  079%=      5-min Rain = 0
KARS 140256Z 25009KT 04/01 A2985 RMK A01 T00410009  RH  079%=      5-min Rain = 0
KARS 140257Z 25009KT 04/01 A2985 RMK A01 T00410009  RH  079%=      5-min Rain = 0
KARS 140258Z 25010KT 04/01 A2985 RMK A01 T00410008  RH  079%=      5-min Rain = 0
KARS 140259Z 24010KT 04/01 A2985 RMK A01 T00410008  RH  079%=      5-min Rain = 0
KARS 140300Z 24009KT 04/01 A2985 RMK A01 T00410008  RH  079%=      5-min Rain = 0
KARS 140301Z 24010KT 04/01 A2985 RMK A01 T00410008  RH  079%=      5-min Rain = 0
KARS 140302Z 25010KT 04/01 A2985 RMK A01 T00410008  RH  079%=      5-min Rain = 0
KARS 140303Z 25009KT 04/01 A2985 RMK A01 T00420008  RH  078%=      5-min Rain = 0
KARS 140304Z 25009KT 04/01 A2985 RMK A01 T00430008  RH  078%=      5-min Rain = 0
KARS 140305Z 25009KT 04/01 A2985 RMK A01 T00420007  RH  078%=      5-min Rain = 0
KARS 140306Z 25009KT 04/01 A2985 RMK A01 T00420007  RH  078%=      5-min Rain = 0
KARS 140307Z 25009KT 04/01 A2985 RMK A01 T00410007  RH  079%=      5-min Rain = 0
KARS 140308Z 25009KT 04/01 A2985 RMK A01 T00400007  RH  079%=      5-min Rain = 0
KARS 140309Z 25009KT 04/01 A2985 RMK A01 T00400006  RH  079%=      5-min Rain = 0
KARS 140310Z 25010KT 04/01 A2985 RMK A01 T00400006  RH  078%=      5-min Rain = 0
KARS 140311Z 26009KT 04/01 A2985 RMK A01 T00400006  RH  078%=      5-min Rain = 0
KARS 140312Z 26009KT 04/01 A2985 RMK A01 T00390005  RH  078%=      5-min Rain = 0
KARS 140313Z 26010KT 04/01 A2985 RMK A01 T00390005  RH  079%=      5-min Rain = 0
KARS 140314Z 25010KT 04/00 A2985 RMK A01 T00380004  RH  079%=      5-min Rain = 0
KARS 140315Z 25010KT 04/00 A2985 RMK A01 T00380004  RH  079%=      5-min Rain = 0
KARS 140316Z 26010KT 04/00 A2985 RMK A01 T00370004  RH  079%=      5-min Rain = 0
KARS 140317Z 26009KT 04/00 A2985 RMK A01 T00360003  RH  079%=      5-min Rain = 0
KARS 140318Z 26009KT 04/00 A2985 RMK A01 T00350003  RH  079%=      5-min Rain = 0
KARS 140319Z 26009KT 04/00 A2985 RMK A01 T00350003  RH  079%=      5-min Rain = 0
KARS 140320Z 26009KT 04/00 A2985 RMK A01 T00350003  RH  079%=      5-min Rain = 0
KARS 140321Z 26009KT 04/00 A2985 RMK A01 T00350003  RH  079%=      5-min Rain = 0
KARS 140322Z 26009KT 04/00 A2985 RMK A01 T00350002  RH  079%=      5-min Rain = 0
KARS 140323Z 26009KT 04/00 A2985 RMK A01 T00350002  RH  079%=      5-min Rain = 0
KARS 140324Z 26009KT 03/00 A2985 RMK A01 T00340002  RH  079%=      5-min Rain = 0
KARS 140325Z 25009KT 03/00 A2985 RMK A01 T00340002  RH  079%=      5-min Rain = 0
KARS 140326Z 25010KT 03/00 A2985 RMK A01 T00340002  RH  079%=      5-min Rain = 0
KARS 140327Z 26010KT 04/00 A2985 RMK A01 T00350002  RH  079%=      5-min Rain = 0
KARS 140328Z 25010KT 04/00 A2985 RMK A01 T00350002  RH  079%=      5-min Rain = 0
KARS 140329Z 25010KT 03/00 A2985 RMK A01 T00340002  RH  079%=      5-min Rain = 0
KARS 140330Z 26010KT 03/00 A2985 RMK A01 T00340002  RH  080%=      5-min Rain = 0
KARS 140331Z 25010KT 03/00 A2985 RMK A01 T00340002  RH  080%=      5-min Rain = 0
KARS 140332Z 25010KT 03/00 A2985 RMK A01 T00340002  RH  080%=      5-min Rain = 0
KARS 140333Z 25010KT 03/00 A2985 RMK A01 T00330002  RH  080%=      5-min Rain = 0
KARS 140334Z 25010KT 03/00 A2985 RMK A01 T00330002  RH  080%=      5-min Rain = 0
KARS 140335Z 25010KT 03/00 A2985 RMK A01 T00330001  RH  080%=      5-min Rain = 0
KARS 140336Z 25010KT 03/00 A2985 RMK A01 T00340001  RH  079%=      5-min Rain = 0
KARS 140337Z 25010KT 03/00 A2985 RMK A01 T00340001  RH  079%=      5-min Rain = 0
KARS 140338Z 25010KT 04/00 A2985 RMK A01 T00350001  RH  078%=      5-min Rain = 0
KARS 140339Z 25011KT 04/00 A2985 RMK A01 T00350000  RH  078%=      5-min Rain = 0
KARS 140340Z 25011KT 04/00 A2985 RMK A01 T00360000  RH  078%=      5-min Rain = 0
KARS 140341Z 25010KT 04/00 A2985 RMK A01 T00360000  RH  078%=      5-min Rain = 0
KARS 140342Z 26010KT 04/00 A2985 RMK A01 T00360000  RH  077%=      5-min Rain = 0
KARS 140343Z 25011KT 04/00 A2985 RMK A01 T00370000  RH  077%=      5-min Rain = 0
KARS 140344Z 25010KT 04/00 A2985 RMK A01 T00380000  RH  077%=      5-min Rain = 0
KARS 140345Z 25010KT 04/00 A2985 RMK A01 T00380001  RH  077%=      5-min Rain = 0
KARS 140346Z 25011KT 04/00 A2985 RMK A01 T00380000  RH  077%=      5-min Rain = 0
KARS 140347Z 25011KT 04/00 A2985 RMK A01 T00380000  RH  077%=      5-min Rain = 0
KARS 140348Z 25011KT 04/00 A2985 RMK A01 T00380000  RH  077%=      5-min Rain = 0
KARS 140349Z 25011KT 04/00 A2985 RMK A01 T003800-0  RH  076%=      5-min Rain = 0
KARS 140350Z 26012KT 04/00 A2985 RMK A01 T003700-0  RH  077%=      5-min Rain = 0
KARS 140351Z 26012KT 04/M00 A2985 RMK A01 T00371001  RH  076%=      5-min Rain = 0
KARS 140352Z 25011KT 04/M00 A2985 RMK A01 T00381001  RH  076%=      5-min Rain = 0
KARS 140353Z 25011KT 04/00 A2985 RMK A01 T003800-0  RH  076%=      5-min Rain = 0
KARS 140354Z 26012KT 04/M00 A2985 RMK A01 T00381001  RH  076%=      5-min Rain = 0
KARS 140355Z 26012KT 04/M00 A2985 RMK A01 T00381001  RH  076%=      5-min Rain = 0
KARS 140356Z 26011KT 04/M00 A2985 RMK A01 T00381001  RH  076%=      5-min Rain = 0
KARS 140357Z 25011KT 04/M00 A2985 RMK A01 T00381001  RH  075%=      5-min Rain = 0
KARS 140358Z 25011KT 04/M00 A2985 RMK A01 T00381001  RH  076%=      5-min Rain = 0
KARS 140359Z 26011KT 04/M00 A2985 RMK A01 T00371001  RH  076%=      5-min Rain = 0
KARS 140400Z 25011KT 04/M00 A2985 RMK A01 T00371001  RH  076%=      5-min Rain = 0
KARS 140401Z 25010KT 04/M00 A2985 RMK A01 T00371001  RH  076%=      5-min Rain = 0
KARS 140402Z 26010KT 04/M00 A2985 RMK A01 T00371001  RH  076%=      5-min Rain = 0
KARS 140403Z 25009KT 04/M00 A2985 RMK A01 T00371001  RH  076%=      5-min Rain = 0
KARS 140404Z 25009KT 04/M00 A2985 RMK A01 T00371001  RH  076%=      5-min Rain = 0
KARS 140405Z 26008KT 04/M00 A2985 RMK A01 T00361001  RH  076%=      5-min Rain = 0
KARS 140406Z 25008KT 04/M00 A2985 RMK A01 T00351001  RH  077%=      5-min Rain = 0
KARS 140407Z 25009KT 04/M00 A2985 RMK A01 T00351001  RH  077%=      5-min Rain = 0
KARS 140408Z 24009KT 03/M00 A2985 RMK A01 T00341002  RH  078%=      5-min Rain = 0
KARS 140409Z 24009KT 03/M00 A2985 RMK A01 T00331002  RH  078%=      5-min Rain = 0
KARS 140410Z 25009KT 03/M00 A2985 RMK A01 T00331002  RH  078%=      5-min Rain = 0
KARS 140411Z 24008KT 03/M00 A2985 RMK A01 T00331002  RH  078%=      5-min Rain = 0
KARS 140412Z 24009KT 03/M00 A2985 RMK A01 T00321003  RH  078%=      5-min Rain = 0
KARS 140413Z 24009KT 03/M00 A2985 RMK A01 T00321003  RH  078%=      5-min Rain = 0
KARS 140414Z 25008KT 03/M00 A2985 RMK A01 T00311003  RH  079%=      5-min Rain = 0
KARS 140415Z 25009KT 03/M00 A2985 RMK A01 T00301003  RH  079%=      5-min Rain = 0
KARS 140416Z 25010KT 03/M00 A2985 RMK A01 T00301003  RH  079%=      5-min Rain = 0
KARS 140417Z 25009KT 03/M00 A2985 RMK A01 T00301003  RH  079%=      5-min Rain = 0
KARS 140418Z 25009KT 03/M00 A2985 RMK A01 T00291003  RH  079%=      5-min Rain = 0
KARS 140419Z 26009KT 03/M00 A2985 RMK A01 T00301003  RH  079%=      5-min Rain = 0
KARS 140420Z 26009KT 03/M00 A2984 RMK A01 T00301003  RH  079%=      5-min Rain = 0
KARS 140421Z 26009KT 03/M00 A2984 RMK A01 T00291003  RH  079%=      5-min Rain = 0
KARS 140422Z 26009KT 03/M00 A2984 RMK A01 T00291003  RH  079%=      5-min Rain = 0
KARS 140423Z 26009KT 03/M00 A2984 RMK A01 T00291003  RH  080%=      5-min Rain = 0
KARS 140424Z 26009KT 03/M00 A2984 RMK A01 T00291003  RH  079%=      5-min Rain = 0
KARS 140425Z 26008KT 03/M00 A2984 RMK A01 T00291003  RH  079%=      5-min Rain = 0
KARS 140426Z 26009KT 03/M00 A2984 RMK A01 T00281003  RH  080%=      5-min Rain = 0
KARS 140427Z 26008KT 03/M00 A2984 RMK A01 T00281003  RH  080%=      5-min Rain = 0
KARS 140428Z 26008KT 03/M00 A2984 RMK A01 T00281004  RH  079%=      5-min Rain = 0
KARS 140429Z 26008KT 03/M00 A2984 RMK A01 T00281004  RH  079%=      5-min Rain = 0
KARS 140430Z 26008KT 03/M00 A2984 RMK A01 T00281004  RH  079%=      5-min Rain = 0
KARS 140431Z 26008KT 03/M00 A2984 RMK A01 T00281004  RH  080%=      5-min Rain = 0
KARS 140432Z 26008KT 03/M00 A2984 RMK A01 T00281004  RH  080%=      5-min Rain = 0
KARS 140433Z 26007KT 03/M00 A2984 RMK A01 T00281004  RH  080%=      5-min Rain = 0
KARS 140434Z 26007KT 03/M00 A2984 RMK A01 T00271004  RH  080%=      5-min Rain = 0
KARS 140435Z 25007KT 03/M00 A2984 RMK A01 T00271004  RH  080%=      5-min Rain = 0
KARS 140436Z 25006KT 03/M00 A2984 RMK A01 T00271004  RH  080%=      5-min Rain = 0
KARS 140437Z 25007KT 03/M01 A2984 RMK A01 T00271005  RH  080%=      5-min Rain = 0
KARS 140438Z 25007KT 03/M01 A2984 RMK A01 T00271005  RH  080%=      5-min Rain = 0
KARS 140439Z 25007KT 03/M01 A2984 RMK A01 T00271005  RH  080%=      5-min Rain = 0
KARS 140440Z 25007KT 03/M01 A2984 RMK A01 T00271005  RH  079%=      5-min Rain = 0
KARS 140441Z 25007KT 03/M01 A2984 RMK A01 T00271005  RH  079%=      5-min Rain = 0
KARS 140442Z 25007KT 03/M01 A2984 RMK A01 T00281005  RH  079%=      5-min Rain = 0
KARS 140443Z 25007KT 03/M01 A2983 RMK A01 T00281005  RH  079%=      5-min Rain = 0
KARS 140444Z 25008KT 03/M01 A2983 RMK A01 T00271005  RH  079%=      5-min Rain = 0
KARS 140445Z 25008KT 03/M01 A2983 RMK A01 T00281005  RH  079%=      5-min Rain = 0
KARS 140446Z 25008KT 03/M01 A2983 RMK A01 T00281005  RH  079%=      5-min Rain = 0
KARS 140447Z 26008KT 03/M01 A2983 RMK A01 T00281005  RH  079%=      5-min Rain = 0
KARS 140448Z 26008KT 03/M01 A2983 RMK A01 T00281005  RH  079%=      5-min Rain = 0
KARS 140449Z 26007KT 03/M01 A2983 RMK A01 T00271005  RH  079%=      5-min Rain = 0
KARS 140450Z 26007KT 03/M01 A2983 RMK A01 T00271005  RH  079%=      5-min Rain = 0
KARS 140451Z 25007KT 03/M01 A2983 RMK A01 T00271005  RH  079%=      5-min Rain = 0
KARS 140452Z 25007KT 03/M01 A2983 RMK A01 T00271006  RH  079%=      5-min Rain = 0
KARS 140453Z 25008KT 03/M01 A2983 RMK A01 T00271006  RH  079%=      5-min Rain = 0
KARS 140454Z 25008KT 03/M01 A2983 RMK A01 T00271006  RH  079%=      5-min Rain = 0
KARS 140455Z 25008KT 03/M01 A2982 RMK A01 T00271006  RH  079%=      5-min Rain = 0
KARS 140456Z 25008KT 03/M01 A2982 RMK A01 T00271006  RH  079%=      5-min Rain = 0
KARS 140457Z 25008KT 03/M01 A2982 RMK A01 T00271006  RH  079%=      5-min Rain = 0
KARS 140458Z 25009KT 03/M01 A2982 RMK A01 T00281006  RH  079%=      5-min Rain = 0
KARS 140459Z 25008KT 03/M01 A2982 RMK A01 T00281005  RH  079%=      5-min Rain = 0
KARS 140500Z 26008KT 03/M01 A2982 RMK A01 T00271006  RH  079%=      5-min Rain = 0
KARS 140501Z 26008KT 03/M01 A2983 RMK A01 T00261006  RH  079%=      5-min Rain = 0
KARS 140502Z 26008KT 03/M01 A2983 RMK A01 T00261006  RH  080%=      5-min Rain = 0
KARS 140503Z 26007KT 03/M01 A2983 RMK A01 T00261006  RH  080%=      5-min Rain = 0
KARS 140504Z 25007KT 03/M01 A2983 RMK A01 T00261006  RH  080%=      5-min Rain = 0
KARS 140505Z 25007KT 03/M01 A2983 RMK A01 T00261006  RH  080%=      5-min Rain = 0
KARS 140506Z 25007KT 03/M01 A2983 RMK A01 T00261006  RH  080%=      5-min Rain = 0
KARS 140507Z 26007KT 03/M01 A2983 RMK A01 T00261006  RH  079%=      5-min Rain = 0
KARS 140508Z 26007KT 03/M01 A2983 RMK A01 T00271006  RH  079%=      5-min Rain = 0
KARS 140509Z 26007KT 03/M01 A2983 RMK A01 T00281006  RH  079%=      5-min Rain = 0
KARS 140510Z 27007KT 03/M01 A2983 RMK A01 T00281006  RH  078%=      5-min Rain = 0
KARS 140511Z 27008KT 03/M01 A2983 RMK A01 T00291006  RH  078%=      5-min Rain = 0
KARS 140512Z 27009KT 03/M01 A2983 RMK A01 T00291006  RH  077%=      5-min Rain = 0
KARS 140513Z 27009KT 03/M01 A2983 RMK A01 T00291006  RH  078%=      5-min Rain = 0
KARS 140514Z 27009KT 03/M01 A2984 RMK A01 T00291006  RH  078%=      5-min Rain = 0
KARS 140515Z 27009KT 03/M01 A2984 RMK A01 T00281006  RH  078%=      5-min Rain = 0
KARS 140516Z 27009KT 03/M01 A2984 RMK A01 T00281006  RH  078%=      5-min Rain = 0
KARS 140517Z 28008KT 03/M01 A2984 RMK A01 T00281005  RH  079%=      5-min Rain = 0
KARS 140518Z 28008KT 03/M01 A2984 RMK A01 T00271005  RH  079%=      5-min Rain = 0
KARS 140519Z 28009KT 03/M01 A2984 RMK A01 T00271006  RH  079%=      5-min Rain = 0
KARS 140520Z 28009KT 03/M01 A2984 RMK A01 T00271006  RH  079%=      5-min Rain = 0
KARS 140521Z 27010KT 03/M01 A2984 RMK A01 T00281006  RH  078%=      5-min Rain = 0
KARS 140522Z 27010KT 03/M01 A2985 RMK A01 T00301007  RH  077%=      5-min Rain = 0
KARS 140523Z 27010KT 03/M01 A2985 RMK A01 T00311006  RH  076%=      5-min Rain = 0
KARS 140524Z 27011KT 03/M01 A2985 RMK A01 T00321007  RH  076%=      5-min Rain = 0
KARS 140525Z 27011KT 03/M01 A2985 RMK A01 T00321007  RH  075%=      5-min Rain = 0
KARS 140526Z 27010KT 03/M01 A2985 RMK A01 T00331007  RH  075%=      5-min Rain = 0
KARS 140527Z 27011KT 03/M01 A2985 RMK A01 T00331007  RH  075%=      5-min Rain = 0
KARS 140528Z 27010KT 03/M01 A2985 RMK A01 T00331007  RH  075%=      5-min Rain = 0
KARS 140529Z 27010KT 03/M01 A2985 RMK A01 T00331007  RH  075%=      5-min Rain = 0
KARS 140530Z 27010KT 03/M01 A2985 RMK A01 T00331006  RH  075%=      5-min Rain = 0
KARS 140531Z 27009KT 03/M01 A2985 RMK A01 T00331006  RH  075%=      5-min Rain = 0
KARS 140532Z 27009KT 03/M01 A2985 RMK A01 T00331007  RH  075%=      5-min Rain = 0
KARS 140533Z 27009KT 03/M01 A2985 RMK A01 T00331006  RH  075%=      5-min Rain = 0
KARS 140534Z 27009KT 03/M01 A2985 RMK A01 T00331007  RH  075%=      5-min Rain = 0
KARS 140535Z 27009KT 03/M01 A2984 RMK A01 T00331007  RH  075%=      5-min Rain = 0
KARS 140536Z 27009KT 03/M01 A2984 RMK A01 T00331007  RH  075%=      5-min Rain = 0
KARS 140537Z 27009KT 03/M01 A2984 RMK A01 T00321007  RH  075%=      5-min Rain = 0
KARS 140538Z 26008KT 03/M01 A2984 RMK A01 T00321007  RH  076%=      5-min Rain = 0
KARS 140539Z 26009KT 03/M01 A2984 RMK A01 T00321007  RH  075%=      5-min Rain = 0
KARS 140540Z 26009KT 03/M01 A2984 RMK A01 T00321008  RH  075%=      5-min Rain = 0
KARS 140541Z 26008KT 03/M01 A2984 RMK A01 T00331008  RH  075%=      5-min Rain = 0
KARS 140542Z 27009KT 03/M01 A2984 RMK A01 T00331008  RH  074%=      5-min Rain = 0
KARS 140543Z 27009KT 03/M01 A2984 RMK A01 T00341008  RH  074%=      5-min Rain = 0
KARS 140544Z 27009KT 03/M01 A2984 RMK A01 T00341009  RH  074%=      5-min Rain = 0
KARS 140545Z 27009KT 03/M01 A2984 RMK A01 T00341009  RH  073%=      5-min Rain = 0
KARS 140546Z 27009KT 03/M01 A2984 RMK A01 T00341008  RH  074%=      5-min Rain = 0
KARS 140547Z 27008KT 03/M01 A2984 RMK A01 T00331008  RH  074%=      5-min Rain = 0
KARS 140548Z 27008KT 03/M01 A2984 RMK A01 T00321008  RH  075%=      5-min Rain = 0
KARS 140549Z 27008KT 03/M01 A2984 RMK A01 T00311008  RH  075%=      5-min Rain = 0
KARS 140550Z 27008KT 03/M01 A2984 RMK A01 T00311008  RH  076%=      5-min Rain = 0
KARS 140551Z 26007KT 03/M01 A2983 RMK A01 T00311009  RH  075%=      5-min Rain = 0
KARS 140552Z 26008KT 03/M01 A2983 RMK A01 T00311009  RH  075%=      5-min Rain = 0
KARS 140553Z 26007KT 03/M01 A2983 RMK A01 T00311009  RH  075%=      5-min Rain = 0
KARS 140554Z 26007KT 03/M01 A2983 RMK A01 T00311008  RH  075%=      5-min Rain = 0
KARS 140555Z 25007KT 03/M01 A2983 RMK A01 T00301008  RH  076%=      5-min Rain = 0
KARS 140556Z 25007KT 03/M01 A2983 RMK A01 T00291008  RH  076%=      5-min Rain = 0
KARS 140557Z 25007KT 03/M01 A2983 RMK A01 T00291009  RH  076%=      5-min Rain = 0
KARS 140558Z 26008KT 03/M01 A2983 RMK A01 T00281009  RH  077%=      5-min Rain = 0
KARS 140559Z 26008KT 03/M01 A2983 RMK A01 T00271009  RH  077%=      5-min Rain = 0

Page generated in 0.1172 seconds.